EW3176 Weather Reports


Display with metric or nautical units.
time (UTC)temp
F
wind
direction
speed
MPH
gust
MPH
rain 1hr
in
rain 24hr
in
rain mn
in
humidity
%
barometer
mb
20200408192726 83 290 0.0 8.0 0.00 0.00 0.00 42 992.1
20200408192621 83 306 0.0 8.0 0.00 0.00 0.00 44 992.0
20200408192513 83 302 0.0 8.0 0.00 0.00 0.00 43 992.1
20200408192407 83 246 1.0 8.0 0.00 0.00 0.00 44 992.1
20200408192301 83 244 1.0 8.0 0.00 0.00 0.00 43 992.2
20200408192154 83 275 2.0 8.0 0.00 0.00 0.00 43 992.3
20200408192052 83 331 2.0 8.0 0.00 0.00 0.00 42 992.3
20200408191947 83 271 2.0 8.0 0.00 0.00 0.00 41 992.3
20200408191843 83 313 2.0 8.0 0.00 0.00 0.00 43 992.4
20200408191737 83 48 2.0 8.0 0.00 0.00 0.00 44 992.4
20200408191634 83 342 2.0 8.0 0.00 0.00 0.00 42 992.4
20200408191528 83 303 2.0 8.0 0.00 0.00 0.00 42 992.5
20200408191425 83 302 2.0 8.0 0.00 0.00 0.00 40 992.5
20200408191320 83 324 1.0 8.0 0.00 0.00 0.00 40 992.4
20200408191217 84 321 1.0 8.0 0.00 0.00 0.00 41 992.5
20200408191113 84 275 1.0 8.0 0.00 0.00 0.00 40 992.5
20200408191008 84 321 0.0 8.0 0.00 0.00 0.00 41 992.5
20200408190903 84 239 0.0 8.0 0.00 0.00 0.00 43 992.5
20200408190759 84 277 0.0 8.0 0.00 0.00 0.00 42 992.5
20200408190654 84 355 1.0 7.0 0.00 0.00 0.00 42 992.4
20200408190548 83 71 1.0 7.0 0.00 0.00 0.00 42 992.5
20200408190441 83 88 1.0 7.0 0.00 0.00 0.00 41 992.5
20200408190335 83 64 1.0 7.0 0.00 0.00 0.00 40 992.5
20200408190228 83 76 1.0 7.0 0.00 0.00 0.00 41 992.6
20200408190125 83 128 1.0 7.0 0.00 0.00 0.00 41 992.6
20200408190023 83 140 1.0 7.0 0.00 0.00 0.00 41 992.7
20200408185919 83 123 1.0 7.0 0.00 0.00 0.00 40 992.7
20200408185817 83 116 1.0 7.0 0.00 0.00 0.00 40 992.7
20200408185713 83 302 1.0 6.0 0.00 0.00 0.00 40 992.7
20200408185610 84 296 1.0 6.0 0.00 0.00 0.00 41 992.8
20200408185504 84 300 1.0 6.0 0.00 0.00 0.00 40 992.8
20200408185357 84 259 1.0 6.0 0.00 0.00 0.00 41 992.7
20200408185250 84 275 1.0 3.0 0.00 0.00 0.00 41 992.7
20200408185146 84 304 1.0 8.0 0.00 0.00 0.00 42 992.8
20200408185039 84 303 1.0 8.0 0.00 0.00 0.00 40 992.8
20200408184937 84 296 1.0 8.0 0.00 0.00 0.00 39 992.7
20200408184835 84 306 1.0 8.0 0.00 0.00 0.00 39 992.8
20200408184727 84 273 1.0 8.0 0.00 0.00 0.00 38 992.7
20200408184622 85 308 1.0 8.0 0.00 0.00 0.00 39 992.8
20200408184516 85 300 1.0 8.0 0.00 0.00 0.00 41 992.7
20200408184411 85 286 1.0 8.0 0.00 0.00 0.00 39 992.7
20200408184305 85 295 1.0 6.0 0.00 0.00 0.00 40 992.6
20200408184200 85 278 0.0 6.0 0.00 0.00 0.00 39 992.7
20200408184057 85 327 0.0 4.0 0.00 0.00 0.00 39 992.7
20200408183953 85 285 0.0 4.0 0.00 0.00 0.00 39 992.7
20200408183849 85 74 0.0 4.0 0.00 0.00 0.00 39 992.8
20200408183746 85 236 0.0 4.0 0.00 0.00 0.00 42 992.7
20200408183643 85 219 0.0 4.0 0.00 0.00 0.00 39 992.8
20200408183538 85 136 0.0 4.0 0.00 0.00 0.00 39 992.8
20200408183431 85 196 0.0 3.0 0.00 0.00 0.00 39 992.8
20200408183329 85 224 0.0 2.0 0.00 0.00 0.00 41 992.8
20200408183224 84 291 0.0 0.0 0.00 0.00 0.00 41 992.9
20200408183121 84 291 0.0 8.0 0.00 0.00 0.00 42 992.9
20200408183017 84 296 0.0 8.0 0.00 0.00 0.00 40 993.0
20200408182911 84 338 0.0 8.0 0.00 0.00 0.00 40 993.0
20200408182806 84 320 0.0 8.0 0.00 0.00 0.00 41 992.9
20200408182700 84 336 0.0 8.0 0.00 0.00 0.00 40 992.9
20200408182555 84 331 0.0 8.0 0.00 0.00 0.00 40 993.0
20200408182449 84 51 1.0 8.0 0.00 0.00 0.00 42 993.0
20200408182345 84 247 1.0 8.0 0.00 0.00 0.00 39 992.9
20200408182242 84 55 1.0 8.0 0.00 0.00 0.00 39 993.1
20200408182136 84 305 1.0 8.0 0.00 0.00 0.00 39 993.0
20200408182034 84 170 1.0 8.0 0.00 0.00 0.00 39 993.0
20200408181928 84 241 0.0 8.0 0.00 0.00 0.00 40 993.1
20200408181824 84 307 0.0 8.0 0.00 0.00 0.00 40 993.1
20200408181719 84 225 0.0 8.0 0.00 0.00 0.00 41 993.1
20200408181616 84 148 0.0 8.0 0.00 0.00 0.00 39 993.2
20200408181509 84 261 0.0 8.0 0.00 0.00 0.00 38 993.1
20200408181406 85 292 0.0 4.0 0.00 0.00 0.00 38 993.2
20200408181302 85 300 0.0 2.0 0.00 0.00 0.00 38 993.1
20200408181200 85 263 0.0 2.0 0.00 0.00 0.00 37 993.2
20200408181052 85 294 0.0 2.0 0.00 0.00 0.00 40 993.1
20200408180946 85 259 0.0 0.0 0.00 0.00 0.00 42 993.2
20200408180843 84 258 0.0 3.0 0.00 0.00 0.00 42 993.2
20200408180739 84 269 0.0 3.0 0.00 0.00 0.00 39 993.2
20200408180634 84 186 0.0 3.0 0.00 0.00 0.00 40 993.2
20200408180527 84 58 0.0 3.0 0.00 0.00 0.00 39 993.3
20200408180436 84 327 0.0 3.0 0.00 0.00 0.00 39 993.3
20200408180318 84 328 0.0 3.0 0.00 0.00 0.00 41 993.3
20200408180216 84 289 0.0 3.0 0.00 0.00 0.00 40 993.3
20200408180110 84 58 0.0 3.0 0.00 0.00 0.00 39 993.4
20200408180007 84 34 0.0 3.0 0.00 0.00 0.00 38 993.4
20200408175859 84 50 0.0 1.0 0.00 0.00 0.00 40 993.4
20200408175757 84 289 0.0 1.0 0.00 0.00 0.00 38 993.4
20200408175651 84 313 0.0 1.0 0.00 0.00 0.00 38 993.4
20200408175548 84 153 0.0 1.0 0.00 0.00 0.00 41 993.5
20200408175441 84 304 0.0 1.0 0.00 0.00 0.00 42 993.4
20200408175334 84 251 0.0 1.0 0.00 0.00 0.00 40 993.5
20200408175230 83 250 0.0 1.0 0.00 0.00 0.00 43 993.5
20200408175123 83 59 0.0 6.0 0.00 0.00 0.00 43 993.5
20200408175016 83 57 0.0 6.0 0.00 0.00 0.00 39 993.5
20200408174911 83 273 0.0 6.0 0.00 0.00 0.00 40 993.6
20200408174808 83 290 0.0 6.0 0.00 0.00 0.00 41 993.6
20200408174701 83 293 0.0 4.0 0.00 0.00 0.00 41 993.5
20200408174558 83 296 0.0 4.0 0.00 0.00 0.00 41 993.6
20200408174451 83 294 0.0 4.0 0.00 0.00 0.00 39 993.6
20200408174349 83 318 0.0 4.0 0.00 0.00 0.00 44 993.5
20200408174242 82 239 1.0 4.0 0.00 0.00 0.00 40 993.6
20200408174139 82 219 1.0 4.0 0.00 0.00 0.00 41 993.6
20200408174033 82 232 1.0 4.0 0.00 0.00 0.00 40 993.6
20200408173931 82 232 1.0 4.0 0.00 0.00 0.00 40 993.6
20200408173824 82 292 1.0 4.0 0.00 0.00 0.00 40 993.7
20200408173719 82 85 1.0 10.0 0.00 0.00 0.00 40 993.6
20200408173614 81 74 1.0 10.0 0.00 0.00 0.00 40 993.6
20200408173509 82 315 1.0 10.0 0.00 0.00 0.00 41 993.6
20200408173405 82 288 1.0 10.0 0.00 0.00 0.00 40 993.6
20200408173303 82 292 1.0 10.0 0.00 0.00 0.00 40 993.7
20200408173156 82 313 1.0 10.0 0.00 0.00 0.00 39 993.8
20200408173051 82 313 1.0 10.0 0.00 0.00 0.00 39 993.8
20200408172946 83 303 0.0 10.0 0.00 0.00 0.00 39 993.7
20200408172842 83 296 0.0 10.0 0.00 0.00 0.00 38 993.7
20200408172737 83 317 1.0 10.0 0.00 0.00 0.00 38 993.7
20200408172632 83 317 1.0 10.0 0.00 0.00 0.00 40 993.8
20200408172525 83 282 1.0 10.0 0.00 0.00 0.00 40 993.8
20200408172420 83 292 1.0 10.0 0.00 0.00 0.00 41 993.8
20200408172314 83 250 1.0 10.0 0.00 0.00 0.00 40 993.9
20200408172209 83 232 1.0 10.0 0.00 0.00 0.00 39 993.9
20200408172105 83 255 1.0 10.0 0.00 0.00 0.00 41 994.0
20200408171958 83 253 1.0 10.0 0.00 0.00 0.00 40 994.0
20200408171855 83 234 1.0 10.0 0.00 0.00 0.00 41 994.0
20200408171751 83 190 0.0 10.0 0.00 0.00 0.00 39 994.0
20200408171644 83 346 0.0 6.0 0.00 0.00 0.00 37 994.0
20200408171539 84 309 0.0 4.0 0.00 0.00 0.00 42 994.1
20200408171431 84 288 0.0 6.0 0.00 0.00 0.00 42 994.0
20200408171325 83 299 0.0 6.0 0.00 0.00 0.00 41 994.1
20200408171223 83 314 0.0 6.0 0.00 0.00 0.00 41 994.1
20200408171120 83 207 0.0 6.0 0.00 0.00 0.00 40 994.1
20200408171013 83 239 0.0 6.0 0.00 0.00 0.00 40 994.0
20200408170911 82 240 0.0 6.0 0.00 0.00 0.00 41 994.0
20200408170807 82 240 0.0 6.0 0.00 0.00 0.00 41 994.2
20200408170659 82 319 0.0 6.0 0.00 0.00 0.00 42 994.1
20200408170556 82 319 0.0 6.0 0.00 0.00 0.00 39 994.2
20200408170453 82 320 0.0 6.0 0.00 0.00 0.00 40 994.1
20200408170346 82 244 0.0 6.0 0.00 0.00 0.00 42 994.0
20200408170240 82 186 0.0 6.0 0.00 0.00 0.00 41 994.1
20200408170138 82 25 0.0 6.0 0.00 0.00 0.00 40 994.0
20200408170034 82 23 0.0 6.0 0.00 0.00 0.00 39 994.0
20200408165930 83 122 0.0 6.0 0.00 0.00 0.00 38 994.1
20200408165824 83 80 0.0 3.0 0.00 0.00 0.00 40 994.0
20200408165721 83 180 0.0 1.0 0.00 0.00 0.00 38 994.0
20200408165614 83 180 0.0 1.0 0.00 0.00 0.00 38 994.0
20200408165509 83 241 0.0 0.0 0.00 0.00 0.00 41 994.1
20200408165405 82 242 0.0 3.0 0.00 0.00 0.00 39 994.0
20200408165304 82 155 0.0 3.0 0.00 0.00 0.00 42 994.1
20200408165157 82 174 0.0 3.0 0.00 0.00 0.00 44 994.1
20200408165055 82 249 0.0 3.0 0.00 0.00 0.00 41 994.1
20200408164950 82 243 0.0 3.0 0.00 0.00 0.00 42 994.1
20200408164844 81 115 0.0 2.0 0.00 0.00 0.00 43 994.1
20200408164740 81 233 0.0 2.0 0.00 0.00 0.00 42 994.1
20200408164635 81 306 0.0 2.0 0.00 0.00 0.00 40 994.2
20200408164531 81 296 0.0 2.0 0.00 0.00 0.00 43 994.2
20200408164427 81 242 0.0 2.0 0.00 0.00 0.00 43 994.2
20200408164320 81 55 0.0 1.0 0.00 0.00 0.00 47 994.2
20200408164218 80 305 0.0 0.0 0.00 0.00 0.00 45 994.2
20200408164111 80 305 0.0 4.0 0.00 0.00 0.00 41 994.2
20200408164009 80 16 0.0 4.0 0.00 0.00 0.00 41 994.2
20200408163902 80 32 0.0 4.0 0.00 0.00 0.00 42 994.2
20200408163755 80 300 0.0 4.0 0.00 0.00 0.00 43 994.3
20200408163652 80 303 0.0 4.0 0.00 0.00 0.00 41 994.3
20200408163550 80 44 0.0 4.0 0.00 0.00 0.00 41 994.3
20200408163447 80 63 0.0 4.0 0.00 0.00 0.00 42 994.3
20200408163340 80 48 0.0 4.0 0.00 0.00 0.00 42 994.3
20200408163232 80 244 0.0 4.0 0.00 0.00 0.00 44 994.4
20200408163129 81 279 0.0 4.0 0.00 0.00 0.00 40 994.3
20200408163024 81 284 0.0 4.0 0.00 0.00 0.00 41 994.4
20200408162922 81 44 0.0 4.0 0.00 0.00 0.00 41 994.4
20200408162817 81 33 0.0 4.0 0.00 0.00 0.00 42 994.4
20200408162714 80 52 0.0 4.0 0.00 0.00 0.00 42 994.4
20200408162611 80 294 0.0 1.0 0.00 0.00 0.00 42 994.5
20200408162505 80 347 0.0 0.0 0.00 0.00 0.00 45 994.5
20200408162359 80 14 0.0 2.0 0.00 0.00 0.00 43 994.5
20200408162253 80 17 0.0 2.0 0.00 0.00 0.00 42 994.5
20200408162150 80 22 0.0 2.0 0.00 0.00 0.00 43 994.6
20200408162048 80 38 0.0 2.0 0.00 0.00 0.00 43 994.5
20200408161943 80 309 0.0 2.0 0.00 0.00 0.00 45 994.6
20200408161841 79 324 1.0 2.0 0.00 0.00 0.00 43 994.7
20200408161735 79 324 1.0 2.0 0.00 0.00 0.00 45 994.7
20200408161630 79 300 1.0 2.0 0.00 0.00 0.00 47 994.6
20200408161527 79 318 1.0 2.0 0.00 0.00 0.00 43 994.6
20200408161425 78 58 1.0 0.0 0.00 0.00 0.00 45 994.6
20200408161321 78 57 1.0 9.0 0.00 0.00 0.00 44 994.7
20200408161215 78 58 1.0 9.0 0.00 0.00 0.00 44 994.7
20200408161108 78 350 2.0 9.0 0.00 0.00 0.00 43 994.7
20200408161003 78 46 2.0 9.0 0.00 0.00 0.00 44 994.7
20200408160900 78 74 2.0 9.0 0.00 0.00 0.00 44 994.8
20200408160755 78 88 2.0 9.0 0.00 0.00 0.00 43 994.7
20200408160650 78 342 2.0 9.0 0.00 0.00 0.00 46 994.8
20200408160547 78 287 2.0 9.0 0.00 0.00 0.00 43 994.8
20200408160445 78 55 2.0 9.0 0.00 0.00 0.00 43 994.8
20200408160338 78 32 1.0 9.0 0.00 0.00 0.00 45 994.7
20200408160235 79 302 1.0 9.0 0.00 0.00 0.00 43 994.8
20200408160131 79 9 1.0 8.0 0.00 0.00 0.00 42 994.8
20200408160025 79 29 1.0 6.0 0.00 0.00 0.00 42 994.8
20200408155918 79 355 0.0 6.0 0.00 0.00 0.00 44 994.9
20200408155812 79 45 0.0 6.0 0.00 0.00 0.00 42 995.0
20200408155705 79 68 0.0 6.0 0.00 0.00 0.00 45 995.0
20200408155600 79 33 0.0 3.0 0.00 0.00 0.00 43 994.9
20200408155455 80 327 0.0 3.0 0.00 0.00 0.00 43 995.0
20200408155351 80 290 0.0 3.0 0.00 0.00 0.00 44 995.0
20200408155247 80 55 0.0 3.0 0.00 0.00 0.00 46 995.0
20200408155141 79 13 0.0 3.0 0.00 0.00 0.00 45 995.1
20200408155035 79 305 0.0 3.0 0.00 0.00 0.00 44 995.0
20200408154932 79 304 0.0 3.0 0.00 0.00 0.00 44 995.0
20200408154825 79 306 1.0 3.0 0.00 0.00 0.00 47 995.0
20200408154722 79 272 0.0 3.0 0.00 0.00 0.00 44 995.0
20200408154617 79 313 0.0 1.0 0.00 0.00 0.00 44 995.0
20200408154514 79 298 0.0 1.0 0.00 0.00 0.00 46 995.0
20200408154408 79 310 0.0 0.0 0.00 0.00 0.00 47 995.0
20200408154305 78 294 0.0 0.0 0.00 0.00 0.00 49 995.0
20200408154200 78 294 0.0 6.0 0.00 0.00 0.00 46 995.0
20200408154053 78 294 0.0 6.0 0.00 0.00 0.00 44 995.0
20200408153950 79 30 0.0 6.0 0.00 0.00 0.00 43 995.1
20200408153842 79 338 0.0 2.0 0.00 0.00 0.00 45 995.1
20200408153737 79 313 0.0 2.0 0.00 0.00 0.00 48 995.0
20200408153632 79 310 0.0 2.0 0.00 0.00 0.00 48 995.0
20200408153525 78 273 0.0 4.0 0.00 0.00 0.00 47 995.1
20200408153421 78 276 1.0 4.0 0.00 0.00 0.00 48 995.2
20200408153315 78 278 1.0 4.0 0.00 0.00 0.00 47 995.2
20200408153210 77 300 1.0 4.0 0.00 0.00 0.00 48 995.2
20200408153106 77 300 1.0 4.0 0.00 0.00 0.00 46 995.1
20200408153002 77 13 1.0 4.0 0.00 0.00 0.00 45 995.2
20200408152900 77 49 1.0 4.0 0.00 0.00 0.00 46 995.2
20200408152752 77 53 1.0 4.0 0.00 0.00 0.00 46 995.2
20200408152647 77 63 1.0 4.0 0.00 0.00 0.00 45 995.3
20200408152545 77 20 1.0 4.0 0.00 0.00 0.00 45 995.3
20200408152439 77 16 1.0 4.0 0.00 0.00 0.00 47 995.4
20200408152334 77 25 1.0 4.0 0.00 0.00 0.00 49 995.4
20200408152230 77 355 0.0 4.0 0.00 0.00 0.00 48 995.3
20200408152126 77 11 0.0 4.0 0.00 0.00 0.00 47 995.4
20200408152020 77 94 0.0 4.0 0.00 0.00 0.00 48 995.4
20200408151917 77 95 0.0 4.0 0.00 0.00 0.00 49 995.4
20200408151816 77 69 0.0 4.0 0.00 0.00 0.00 48 995.4
20200408151712 77 351 0.0 4.0 0.00 0.00 0.00 46 995.4
20200408151604 77 39 0.0 4.0 0.00 0.00 0.00 48 995.4
20200408151458 77 346 0.0 3.0 0.00 0.00 0.00 48 995.4
20200408151355 77 63 0.0 2.0 0.00 0.00 0.00 46 995.3
20200408151252 76 73 0.0 1.0 0.00 0.00 0.00 49 995.4
20200408151149 76 347 0.0 4.0 0.00 0.00 0.00 49 995.4
20200408151044 76 346 0.0 4.0 0.00 0.00 0.00 48 995.4
20200408150938 76 346 1.0 4.0 0.00 0.00 0.00 47 995.5
20200408150832 76 38 1.0 4.0 0.00 0.00 0.00 48 995.4
20200408150728 76 314 1.0 4.0 0.00 0.00 0.00 50 995.4
20200408150625 76 141 1.0 4.0 0.00 0.00 0.00 49 995.4
20200408150517 76 24 1.0 4.0 0.00 0.00 0.00 49 995.4
20200408150414 76 40 1.0 4.0 0.00 0.00 0.00 48 995.5
20200408150311 76 38 1.0 4.0 0.00 0.00 0.00 48 995.4
20200408150205 76 311 0.0 4.0 0.00 0.00 0.00 48 995.5
20200408150100 76 332 1.0 2.0 0.00 0.00 0.00 49 995.4
20200408145955 75 326 1.0 4.0 0.00 0.00 0.00 49 995.4
20200408145847 75 300 0.0 4.0 0.00 0.00 0.00 50 995.3
20200408145745 75 332 1.0 4.0 0.00 0.00 0.00 49 995.2
20200408145641 75 338 1.0 4.0 0.00 0.00 0.00 49 995.3
20200408145535 75 343 1.0 4.0 0.00 0.00 0.00 48 995.2
20200408145431 75 338 1.0 4.0 0.00 0.00 0.00 49 995.3
20200408145329 75 347 1.0 4.0 0.00 0.00 0.00 48 995.2
20200408145226 75 300 1.0 4.0 0.00 0.00 0.00 49 995.2
20200408145121 75 327 1.0 4.0 0.00 0.00 0.00 49 995.2
20200408145015 75 315 1.0 4.0 0.00 0.00 0.00 49 995.3
20200408144909 75 341 1.0 4.0 0.00 0.00 0.00 49 995.2
20200408144804 75 321 1.0 4.0 0.00 0.00 0.00 49 995.3
20200408144658 75 57 1.0 4.0 0.00 0.00 0.00 49 995.4
20200408144552 75 349 1.0 4.0 0.00 0.00 0.00 50 995.3
20200408144446 75 44 1.0 4.0 0.00 0.00 0.00 50 995.3
20200408144342 75 45 1.0 4.0 0.00 0.00 0.00 49 995.4
20200408144235 75 321 1.0 4.0 0.00 0.00 0.00 49 995.4
20200408144133 75 313 1.0 4.0 0.00 0.00 0.00 49 995.4
20200408144030 75 46 1.0 4.0 0.00 0.00 0.00 50 995.4
20200408143927 75 314 1.0 4.0 0.00 0.00 0.00 50 995.4
20200408143823 74 319 1.0 4.0 0.00 0.00 0.00 51 995.4
20200408143717 74 325 1.0 4.0 0.00 0.00 0.00 52 995.5
20200408143612 74 309 1.0 4.0 0.00 0.00 0.00 52 995.5
20200408143510 74 306 1.0 4.0 0.00 0.00 0.00 52 995.5
20200408143403 74 28 1.0 4.0 0.00 0.00 0.00 51 995.5
20200408143310 74 23 1.0 4.0 0.00 0.00 0.00 51 995.6
20200408143220 74 333 1.0 4.0 0.00 0.00 0.00 51 995.6
20200408143057 74 40 1.0 4.0 0.00 0.00 0.00 53 995.6
20200408142941 74 71 1.0 4.0 0.00 0.00 0.00 53 995.5
20200408142837 74 297 0.0 4.0 0.00 0.00 0.00 52 995.5
20200408142735 74 355 0.0 4.0 0.00 0.00 0.00 53 995.5
20200408142630 74 12 1.0 4.0 0.00 0.00 0.00 52 995.6
20200408142524 74 60 0.0 4.0 0.00 0.00 0.00 53 995.6
20200408142418 74 298 0.0 4.0 0.00 0.00 0.00 54 995.6
20200408142314 74 330 0.0 4.0 0.00 0.00 0.00 53 995.7
20200408142210 74 34 0.0 4.0 0.00 0.00 0.00 53 995.6
20200408142104 74 282 0.0 4.0 0.00 0.00 0.00 55 995.7
20200408142001 74 56 0.0 4.0 0.00 0.00 0.00 57 995.6
20200408141856 73 47 0.0 4.0 0.00 0.00 0.00 55 995.6
20200408141753 73 53 0.0 4.0 0.00 0.00 0.00 55 995.6
20200408141649 73 22 0.0 4.0 0.00 0.00 0.00 56 995.6
20200408141542 73 338 0.0 4.0 0.00 0.00 0.00 57 995.7
20200408141436 73 344 1.0 4.0 0.00 0.00 0.00 57 995.6
20200408141329 73 71 1.0 5.0 0.00 0.00 0.00 57 995.7
20200408141224 72 71 1.0 5.0 0.00 0.00 0.00 57 995.6
20200408141122 72 13 1.0 5.0 0.00 0.00 0.00 58 995.8
20200408141017 72 9 1.0 5.0 0.00 0.00 0.00 58 995.8
20200408140909 72 338 1.0 5.0 0.00 0.00 0.00 59 995.8
20200408140804 72 327 1.0 5.0 0.00 0.00 0.00 58 995.8
20200408140659 72 21 1.0 5.0 0.00 0.00 0.00 59 995.7
20200408140555 72 36 1.0 5.0 0.00 0.00 0.00 58 995.8
20200408140449 72 350 1.0 5.0 0.00 0.00 0.00 58 995.8
20200408140346 72 314 1.0 8.0 0.00 0.00 0.00 58 995.7
20200408140241 72 339 1.0 8.0 0.00 0.00 0.00 60 995.8
20200408140138 72 49 0.0 8.0 0.00 0.00 0.00 62 995.8
20200408140033 72 332 1.0 8.0 0.00 0.00 0.00 62 995.9
20200408135929 72 65 1.0 8.0 0.00 0.00 0.00 63 995.8
20200408135821 71 22 1.0 8.0 0.00 0.00 0.00 64 995.8
20200408135715 71 46 1.0 8.0 0.00 0.00 0.00 63 995.8
20200408135611 71 327 1.0 8.0 0.00 0.00 0.00 64 995.8
20200408135505 71 40 2.0 8.0 0.00 0.00 0.00 64 995.8
20200408135402 71 346 2.0 9.0 0.00 0.00 0.00 64 995.9
20200408135257 71 30 2.0 9.0 0.00 0.00 0.00 64 995.8
20200408135155 71 290 2.0 9.0 0.00 0.00 0.00 64 995.9
20200408135049 71 49 2.0 9.0 0.00 0.00 0.00 63 995.8
20200408134943 71 323 2.0 9.0 0.00 0.00 0.00 63 995.9
20200408134838 71 302 2.0 9.0 0.00 0.00 0.00 63 995.9
20200408134732 71 325 2.0 9.0 0.00 0.00 0.00 64 995.8
20200408134629 71 325 2.0 9.0 0.00 0.00 0.00 64 995.8
20200408134524 71 331 2.0 9.0 0.00 0.00 0.00 65 995.8
20200408134419 71 16 2.0 9.0 0.00 0.00 0.00 66 995.8
20200408134316 71 343 2.0 9.0 0.00 0.00 0.00 65 995.8
20200408134214 71 90 2.0 9.0 0.00 0.00 0.00 67 995.9
20200408134108 71 26 2.0 9.0 0.00 0.00 0.00 69 995.9
20200408134002 71 28 2.0 9.0 0.00 0.00 0.00 68 995.8
20200408133857 71 334 2.0 9.0 0.00 0.00 0.00 68 995.8
20200408133751 71 329 2.0 9.0 0.00 0.00 0.00 67 995.8
20200408133647 71 9 2.0 9.0 0.00 0.00 0.00 67 995.8
20200408133543 71 319 2.0 9.0 0.00 0.00 0.00 68 995.8
20200408133441 71 302 2.0 9.0 0.00 0.00 0.00 67 995.8
20200408133335 71 17 1.0 6.0 0.00 0.00 0.00 69 995.8
20200408133232 72 9 1.0 6.0 0.00 0.00 0.00 68 995.8
20200408133128 71 317 1.0 6.0 0.00 0.00 0.00 70 995.7
20200408133023 71 297 1.0 6.0 0.00 0.00 0.00 69 995.8
20200408132921 71 333 1.0 6.0 0.00 0.00 0.00 69 995.7
20200408132819 71 31 1.0 6.0 0.00 0.00 0.00 70 995.9
20200408132714 71 295 1.0 6.0 0.00 0.00 0.00 69 995.9
20200408132607 71 344 1.0 4.0 0.00 0.00 0.00 70 996.0
20200408132502 71 346 1.0 4.0 0.00 0.00 0.00 70 996.0
20200408132355 71 330 1.0 4.0 0.00 0.00 0.00 71 995.8
20200408132249 71 298 1.0 1.0 0.00 0.00 0.00 72 995.9
20200408132145 71 304 2.0 7.0 0.00 0.00 0.00 71 995.9
20200408132042 71 19 2.0 7.0 0.00 0.00 0.00 71 995.9
20200408131936 71 269 1.0 7.0 0.00 0.00 0.00 71 995.8
20200408131834 71 325 1.0 5.0 0.00 0.00 0.00 71 996.0
20200408131730 71 318 1.0 5.0 0.00 0.00 0.00 71 995.9
20200408131629 71 324 1.0 5.0 0.00 0.00 0.00 71 996.0
20200408131526 71 40 1.0 5.0 0.00 0.00 0.00 70 995.9
20200408131424 71 34 1.0 5.0 0.00 0.00 0.00 70 996.0
20200408131321 71 344 1.0 3.0 0.00 0.00 0.00 70 995.9
20200408131213 71 24 0.0 3.0 0.00 0.00 0.00 70 995.8
20200408131108 71 18 0.0 3.0 0.00 0.00 0.00 70 995.4
20200408131003 71 297 0.0 4.0 0.00 0.00 0.00 70 995.3
20200408130855 72 290 0.0 4.0 0.00 0.00 0.00 69 995.3
20200408130749 72 52 0.0 4.0 0.00 0.00 0.00 70 995.4
20200408130646 72 78 0.0 4.0 0.00 0.00 0.00 70 995.2
20200408130540 72 292 0.0 4.0 0.00 0.00 0.00 71 995.1
20200408130437 71 292 0.0 4.0 0.00 0.00 0.00 71 995.2
20200408130329 71 290 0.0 4.0 0.00 0.00 0.00 71 995.1
20200408130224 71 301 0.0 4.0 0.00 0.00 0.00 72 995.1
20200408130127 71 304 0.0 4.0 0.00 0.00 0.00 71 995.1
20200408130013 71 295 1.0 6.0 0.00 0.00 0.00 71 995.2
20200408125911 71 301 1.0 6.0 0.00 0.00 0.00 71 995.1
20200408125807 71 321 0.0 6.0 0.00 0.00 0.00 71 995.1
20200408125701 71 312 0.0 6.0 0.00 0.00 0.00 72 995.1
20200408125557 71 134 1.0 6.0 0.00 0.00 0.00 72 995.1
20200408125453 71 309 1.0 6.0 0.00 0.00 0.00 71 995.1
20200408125349 70 324 1.0 6.0 0.00 0.00 0.00 72 995.1
20200408125246 70 283 1.0 6.0 0.00 0.00 0.00 73 995.0
20200408125140 70 300 1.0 6.0 0.00 0.00 0.00 72 995.0
20200408125037 70 317 1.0 6.0 0.00 0.00 0.00 72 995.1
20200408124932 70 303 0.0 8.0 0.00 0.00 0.00 74 995.1
20200408124830 70 303 0.0 8.0 0.00 0.00 0.00 72 995.0
20200408124728 70 311 0.0 8.0 0.00 0.00 0.00 74 995.0
20200408124621 70 312 0.0 8.0 0.00 0.00 0.00 73 995.1
20200408124517 70 294 0.0 8.0 0.00 0.00 0.00 73 995.0
20200408124415 70 264 0.0 8.0 0.00 0.00 0.00 74 994.8
20200408124308 70 309 0.0 8.0 0.00 0.00 0.00 75 994.9
20200408124200 69 309 0.0 8.0 0.00 0.00 0.00 77 994.9
20200408124055 69 309 0.0 8.0 0.00 0.00 0.00 75 994.9
20200408123952 69 309 0.0 8.0 0.00 0.00 0.00 77 994.9
20200408123846 69 309 0.0 8.0 0.00 0.00 0.00 76 994.9
20200408123739 69 311 0.0 8.0 0.00 0.00 0.00 77 994.9
20200408123632 69 311 0.0 8.0 0.00 0.00 0.00 76 994.9
20200408123529 69 304 0.0 8.0 0.00 0.00 0.00 76 994.9
20200408123423 69 244 0.0 8.0 0.00 0.00 0.00 77 994.8
20200408123316 69 299 0.0 8.0 0.00 0.00 0.00 76 994.8
20200408123214 68 293 0.0 8.0 0.00 0.00 0.00 76 994.9
20200408123112 69 296 0.0 8.0 0.00 0.00 0.00 76 994.8
20200408123010 68 298 0.0 4.0 0.00 0.00 0.00 77 994.8
20200408122906 68 311 0.0 4.0 0.00 0.00 0.00 76 994.8
20200408122802 68 304 0.0 4.0 0.00 0.00 0.00 78 994.7
20200408122658 68 300 0.0 4.0 0.00 0.00 0.00 79 994.7
20200408122553 68 298 0.0 4.0 0.00 0.00 0.00 77 994.6
20200408122447 68 138 0.0 4.0 0.00 0.00 0.00 79 994.6
20200408122341 68 130 0.0 4.0 0.00 0.00 0.00 79 994.6
20200408122236 67 141 0.0 4.0 0.00 0.00 0.00 79 994.6
20200408122131 67 257 0.0 4.0 0.00 0.00 0.00 80 994.6
20200408122026 67 257 0.0 4.0 0.00 0.00 0.00 81 994.6
20200408121922 67 327 0.0 4.0 0.00 0.00 0.00 80 994.6
20200408121815 67 104 0.0 4.0 0.00 0.00 0.00 79 994.5
20200408121709 67 302 0.0 4.0 0.00 0.00 0.00 81 994.6
20200408121606 66 11 0.0 2.0 0.00 0.00 0.00 81 994.4
20200408121500 66 140 0.0 2.0 0.00 0.00 0.00 82 994.4
20200408121354 66 294 0.0 2.0 0.00 0.00 0.00 81 994.4
20200408121246 66 295 0.0 2.0 0.00 0.00 0.00 81 994.3
20200408121142 66 71 0.0 1.0 0.00 0.00 0.00 82 994.4
20200408121040 66 323 0.0 1.0 0.00 0.00 0.00 83 994.3
20200408120934 66 325 0.0 1.0 0.00 0.00 0.00 82 994.3
20200408120828 65 305 0.0 2.0 0.00 0.00 0.00 83 994.4
20200408120724 65 305 0.0 2.0 0.00 0.00 0.00 83 994.3
20200408120619 65 305 0.0 2.0 0.00 0.00 0.00 83 994.3
20200408120515 65 315 0.0 0.0 0.00 0.00 0.00 84 994.3
20200408120412 65 315 0.0 2.0 0.00 0.00 0.00 84 994.3
20200408120305 65 315 0.0 2.0 0.00 0.00 0.00 84 994.4
20200408120201 65 315 0.0 2.0 0.00 0.00 0.00 84 994.4
20200408120056 65 223 0.0 0.0 0.00 0.00 0.00 85 994.4
20200408115953 64 223 0.0 0.0 0.00 0.00 0.00 85 994.4
20200408115847 64 223 0.0 0.0 0.00 0.00 0.00 86 994.4
20200408115745 64 223 0.0 0.0 0.00 0.00 0.00 86 994.4
20200408115642 64 201 0.0 0.0 0.00 0.00 0.00 87 994.4
20200408115539 64 201 0.0 0.0 0.00 0.00 0.00 87 994.4
20200408115435 63 201 0.0 0.0 0.00 0.00 0.00 87 994.2
20200408115330 63 201 0.0 0.0 0.00 0.00 0.00 87 994.3
20200408115226 63 201 0.0 0.0 0.00 0.00 0.00 87 994.3
20200408115121 63 198 0.0 0.0 0.00 0.00 0.00 88 994.3
20200408115019 63 197 0.0 0.0 0.00 0.00 0.00 88 994.3
20200408114917 63 252 0.0 0.0 0.00 0.00 0.00 88 994.4
20200408114813 63 331 0.0 0.0 0.00 0.00 0.00 88 994.3
20200408114708 63 331 0.0 0.0 0.00 0.00 0.00 88 994.4
20200408114602 62 331 0.0 0.0 0.00 0.00 0.00 89 994.5
20200408114459 62 331 0.0 0.0 0.00 0.00 0.00 89 994.4
20200408114353 62 331 0.0 0.0 0.00 0.00 0.00 89 994.5
20200408114250 62 331 0.0 0.0 0.00 0.00 0.00 89 994.4
20200408114146 62 331 0.0 0.0 0.00 0.00 0.00 89 994.4
20200408114038 62 331 0.0 0.0 0.00 0.00 0.00 90 994.4
20200408113933 62 331 0.0 0.0 0.00 0.00 0.00 90 994.4
20200408113830 61 331 0.0 0.0 0.00 0.00 0.00 90 994.4
20200408113725 61 331 0.0 0.0 0.00 0.00 0.00 90 994.4
20200408113617 61 331 0.0 0.0 0.00 0.00 0.00 90 994.4
20200408113512 61 331 0.0 0.0 0.00 0.00 0.00 91 994.4
20200408113408 61 331 0.0 0.0 0.00 0.00 0.00 91 994.3
20200408113305 61 331 0.0 0.0 0.00 0.00 0.00 91 994.3
20200408113157 61 331 0.0 0.0 0.00 0.00 0.00 91 994.3
20200408113053 61 331 0.0 0.0 0.00 0.00 0.00 91 994.3
20200408112946 61 331 0.0 0.0 0.00 0.00 0.00 91 994.3
20200408112839 60 331 0.0 0.0 0.00 0.00 0.00 91 994.3
20200408112733 60 331 0.0 0.0 0.00 0.00 0.00 91 994.3
20200408112627 60 331 0.0 0.0 0.00 0.00 0.00 91 994.2
20200408112521 60 331 0.0 0.0 0.00 0.00 0.00 91 994.2
20200408112414 60 331 0.0 0.0 0.00 0.00 0.00 91 994.1
20200408112312 60 331 0.0 0.0 0.00 0.00 0.00 91 994.2
20200408112207 60 331 0.0 0.0 0.00 0.00 0.00 91 994.1
20200408112103 60 331 0.0 0.0 0.00 0.00 0.00 91 994.0
20200408111959 60 331 0.0 0.0 0.00 0.00 0.00 91 994.1
20200408111855 60 331 0.0 0.0 0.00 0.00 0.00 91 994.0
20200408111752 60 331 0.0 0.0 0.00 0.00 0.00 91 994.1
20200408111649 60 331 0.0 0.0 0.00 0.00 0.00 91 994.0
20200408111546 60 331 0.0 0.0 0.00 0.00 0.00 91 994.0
20200408111443 60 331 0.0 0.0 0.00 0.00 0.00 91 994.0
20200408111337 60 331 0.0 0.0 0.00 0.00 0.00 91 994.0
20200408111232 60 331 0.0 0.0 0.00 0.00 0.00 91 993.9
20200408111128 60 331 0.0 0.0 0.00 0.00 0.00 91 994.0
20200408111023 60 331 0.0 0.0 0.00 0.00 0.00 90 993.8
20200408110919 60 331 0.0 0.0 0.00 0.00 0.00 90 993.7
20200408110812 60 331 0.0 0.0 0.00 0.00 0.00 90 993.6
20200408110708 60 331 0.0 0.0 0.00 0.00 0.00 90 993.6
20200408110604 60 331 0.0 0.0 0.00 0.00 0.00 90 993.6
20200408110501 60 331 0.0 0.0 0.00 0.00 0.00 90 993.5
20200408110354 60 331 0.0 0.0 0.00 0.00 0.00 90 993.5
20200408110252 60 329 0.0 0.0 0.00 0.00 0.00 90 993.5
20200408110148 60 329 0.0 0.0 0.00 0.00 0.00 90 993.4
20200408110042 60 329 0.0 0.0 0.00 0.00 0.00 90 993.3
20200408105936 60 329 0.0 0.0 0.00 0.00 0.00 90 993.4
20200408105832 60 329 0.0 0.0 0.00 0.00 0.00 90 993.3
20200408105726 60 329 0.0 0.0 0.00 0.00 0.00 90 993.3
20200408105623 61 329 0.0 0.0 0.00 0.00 0.00 90 993.3
20200408105516 61 329 0.0 0.0 0.00 0.00 0.00 90 993.3
20200408105413 61 329 0.0 0.0 0.00 0.00 0.00 90 993.3
20200408105310 61 329 0.0 0.0 0.00 0.00 0.00 90 993.3
20200408105206 61 329 0.0 0.0 0.00 0.00 0.00 90 993.2
20200408105102 61 329 0.0 0.0 0.00 0.00 0.00 90 993.2
20200408104957 61 329 0.0 0.0 0.00 0.00 0.00 90 993.2
20200408104855 61 329 0.0 0.0 0.00 0.00 0.00 90 993.1
20200408104752 61 329 0.0 0.0 0.00 0.00 0.00 90 993.2
20200408104649 61 329 0.0 0.0 0.00 0.00 0.00 90 993.1
20200408104546 61 329 0.0 0.0 0.00 0.00 0.00 90 993.1
20200408104442 61 329 0.0 0.0 0.00 0.00 0.00 90 993.2
20200408104339 61 329 0.0 0.0 0.00 0.00 0.00 90 993.1
20200408104232 61 329 0.0 0.0 0.00 0.00 0.00 89 993.1
20200408104128 61 329 0.0 0.0 0.00 0.00 0.00 89 993.2
20200408104024 61 329 0.0 0.0 0.00 0.00 0.00 89 993.0
20200408103920 61 329 0.0 0.0 0.00 0.00 0.00 89 993.0
20200408103816 61 329 0.0 0.0 0.00 0.00 0.00 89 993.0
20200408103713 61 329 0.0 0.0 0.00 0.00 0.00 89 992.9
20200408103610 61 329 0.0 0.0 0.00 0.00 0.00 89 992.9
20200408103508 61 329 0.0 0.0 0.00 0.00 0.00 89 992.9
20200408103402 61 329 0.0 0.0 0.00 0.00 0.00 89 992.9
20200408103258 61 329 0.0 0.0 0.00 0.00 0.00 89 992.8
20200408103152 61 329 0.0 0.0 0.00 0.00 0.00 89 992.8
20200408103049 61 329 0.0 0.0 0.00 0.00 0.00 89 992.9
20200408102942 61 329 0.0 0.0 0.00 0.00 0.00 88 992.8
20200408102837 61 329 0.0 0.0 0.00 0.00 0.00 88 992.7
20200408102731 61 329 0.0 0.0 0.00 0.00 0.00 88 992.7
20200408102624 61 329 0.0 0.0 0.00 0.00 0.00 88 992.8
20200408102521 61 329 0.0 0.0 0.00 0.00 0.00 88 992.7
20200408102415 61 329 0.0 0.0 0.00 0.00 0.00 88 992.7
20200408102308 61 329 0.0 0.0 0.00 0.00 0.00 88 992.6
20200408102202 61 329 0.0 0.0 0.00 0.00 0.00 88 992.6
20200408102059 61 329 0.0 0.0 0.00 0.00 0.00 88 992.6
20200408101955 61 329 0.0 0.0 0.00 0.00 0.00 88 992.6
20200408101852 62 329 0.0 0.0 0.00 0.00 0.00 88 992.6
20200408101748 61 329 0.0 0.0 0.00 0.00 0.00 88 992.6
20200408101642 62 329 0.0 0.0 0.00 0.00 0.00 88 992.7
20200408101536 62 329 0.0 1.0 0.00 0.00 0.00 88 992.7
20200408101428 62 329 0.0 1.0 0.00 0.00 0.00 88 992.7
20200408101321 62 69 0.0 0.0 0.00 0.00 0.00 88 992.7
20200408101218 62 69 0.0 0.0 0.00 0.00 0.00 88 992.6
20200408101115 62 69 0.0 0.0 0.00 0.00 0.00 88 992.6
20200408101012 62 69 0.0 0.0 0.00 0.00 0.00 88 992.6
20200408100908 62 69 0.0 0.0 0.00 0.00 0.00 88 992.6
20200408100801 62 69 0.0 0.0 0.00 0.00 0.00 88 992.5
20200408100654 62 69 0.0 0.0 0.00 0.00 0.00 88 992.5
20200408100547 62 90 0.0 0.0 0.00 0.00 0.00 88 992.5
20200408100445 62 300 0.0 0.0 0.00 0.00 0.00 88 992.5
20200408100342 62 300 0.0 0.0 0.00 0.00 0.00 88 992.5
20200408100236 62 300 0.0 0.0 0.00 0.00 0.00 88 992.5
20200408100134 62 300 0.0 0.0 0.00 0.00 0.00 88 992.5
20200408100032 62 324 0.0 0.0 0.00 0.00 0.00 88 992.5
20200408095925 62 324 0.0 1.0 0.00 0.00 0.00 88 992.5
20200408095818 62 324 0.0 1.0 0.00 0.00 0.00 88 992.4
20200408095711 62 52 0.0 0.0 0.00 0.00 0.00 88 992.4
20200408095603 62 51 0.0 0.0 0.00 0.00 0.00 88 992.4
20200408095459 62 51 0.0 0.0 0.00 0.00 0.00 88 992.4
20200408095353 62 51 0.0 0.0 0.00 0.00 0.00 88 992.4
20200408095249 62 51 0.0 0.0 0.00 0.00 0.00 88 992.4
20200408095143 62 51 0.0 0.0 0.00 0.00 0.00 88 992.4
20200408095036 62 51 0.0 0.0 0.00 0.00 0.00 88 992.4
20200408094931 62 251 0.0 0.0 0.00 0.00 0.00 87 992.3
20200408094826 62 251 0.0 0.0 0.00 0.00 0.00 87 992.4
20200408094721 62 251 0.0 0.0 0.00 0.00 0.00 87 992.4
20200408094619 62 251 0.0 0.0 0.00 0.00 0.00 87 992.3
20200408094517 62 251 0.0 0.0 0.00 0.00 0.00 87 992.3
20200408094413 62 222 0.0 0.0 0.00 0.00 0.00 87 992.3
20200408094309 62 222 0.0 0.0 0.00 0.00 0.00 87 992.3
20200408094204 62 218 0.0 0.0 0.00 0.00 0.00 87 992.3
20200408094101 62 218 0.0 0.0 0.00 0.00 0.00 87 992.3
20200408093954 62 218 0.0 0.0 0.00 0.00 0.00 87 992.3
20200408093851 62 218 0.0 0.0 0.00 0.00 0.00 87 992.4
20200408093749 62 218 0.0 2.0 0.00 0.00 0.00 87 992.3
20200408093642 62 208 0.0 2.0 0.00 0.00 0.00 87 992.2
20200408093537 62 207 0.0 2.0 0.00 0.00 0.00 87 992.3
20200408093435 62 207 0.0 2.0 0.00 0.00 0.00 87 992.2
20200408093332 62 309 0.0 0.0 0.00 0.00 0.00 87 992.2
20200408093229 62 309 0.0 0.0 0.00 0.00 0.00 87 992.3
20200408093121 62 309 0.0 0.0 0.00 0.00 0.00 87 992.3
20200408093019 62 309 0.0 0.0 0.00 0.00 0.00 87 992.2
20200408092911 62 309 0.0 0.0 0.00 0.00 0.00 87 992.2
20200408092804 62 309 0.0 3.0 0.00 0.00 0.00 87 992.2
20200408092703 62 229 0.0 3.0 0.00 0.00 0.00 87 992.2
20200408092553 62 229 0.0 3.0 0.00 0.00 0.00 86 992.2
20200408092446 62 229 0.0 3.0 0.00 0.00 0.00 86 992.3
20200408092340 62 155 0.0 0.0 0.00 0.00 0.00 86 992.2
20200408092238 62 155 0.0 0.0 0.00 0.00 0.00 86 992.3
20200408092134 62 155 0.0 0.0 0.00 0.00 0.00 86 992.2
20200408091924 62 156 0.0 0.0 0.00 0.00 0.00 86 992.1
20200408091406 62 326 0.0 0.0 0.00 0.00 0.00 86 992.2
20200408091300 62 326 0.0 0.0 0.00 0.00 0.00 86 992.2
20200408091153 62 267 0.0 0.0 0.00 0.00 0.00 86 992.2
20200408091051 62 267 0.0 2.0 0.00 0.00 0.00 86 992.2
20200408090949 62 5 0.0 2.0 0.00 0.00 0.00 86 992.2
20200408090842 62 225 0.0 2.0 0.00 0.00 0.00 86 992.3
20200408090740 62 225 0.0 2.0 0.00 0.00 0.00 86 992.3
20200408090633 62 140 0.0 0.0 0.00 0.00 0.00 86 992.3
20200408090529 62 140 0.0 0.0 0.00 0.00 0.00 86 992.3
20200408090424 62 140 0.0 0.0 0.00 0.00 0.00 86 992.4
20200408090322 62 140 0.0 1.0 0.00 0.00 0.00 86 992.4
20200408090218 62 140 0.0 1.0 0.00 0.00 0.00 86 992.4
20200408090111 62 223 0.0 0.0 0.00 0.00 0.00 86 992.3
20200408090004 62 223 0.0 0.0 0.00 0.00 0.00 86 992.3
20200408085902 62 223 0.0 0.0 0.00 0.00 0.00 86 992.3
20200408085759 62 203 0.0 0.0 0.00 0.00 0.00 86 992.3
20200408085655 62 203 0.0 0.0 0.00 0.00 0.00 86 992.4
20200408085552 62 201 0.0 0.0 0.00 0.00 0.00 85 992.5
20200408085450 62 202 0.0 0.0 0.00 0.00 0.00 85 992.4
20200408085347 62 201 0.0 0.0 0.00 0.00 0.00 85 992.5
20200408085245 63 202 0.0 0.0 0.00 0.00 0.00 85 992.5
20200408085143 63 201 0.0 0.0 0.00 0.00 0.00 85 992.4
20200408085037 63 201 0.0 0.0 0.00 0.00 0.00 85 992.5
20200408084935 63 202 0.0 0.0 0.00 0.00 0.00 85 992.5
20200408084830 63 202 0.0 0.0 0.00 0.00 0.00 86 992.5
20200408084725 63 202 0.0 0.0 0.00 0.00 0.00 85 992.5
20200408084622 63 202 0.0 0.0 0.00 0.00 0.00 85 992.5
20200408084516 63 202 0.0 0.0 0.00 0.00 0.00 85 992.4
20200408084414 63 202 0.0 0.0 0.00 0.00 0.00 85 992.5
20200408084309 63 201 0.0 0.0 0.00 0.00 0.00 85 992.5
20200408084206 63 202 0.0 0.0 0.00 0.00 0.00 85 992.5
20200408084103 63 201 0.0 0.0 0.00 0.00 0.00 85 992.5
20200408083957 63 201 0.0 0.0 0.00 0.00 0.00 85 992.4
20200408083852 63 202 0.0 0.0 0.00 0.00 0.00 85 992.4
20200408083749 63 201 0.0 0.0 0.00 0.00 0.00 85 992.4
20200408083642 63 158 0.0 0.0 0.00 0.00 0.00 85 992.5
20200408083536 63 157 0.0 0.0 0.00 0.00 0.00 85 992.5
20200408083434 63 157 0.0 0.0 0.00 0.00 0.00 85 992.5
20200408083330 63 175 0.0 0.0 0.00 0.00 0.00 85 992.5
20200408083225 63 174 0.0 0.0 0.00 0.00 0.00 85 992.6
20200408083123 63 175 0.0 0.0 0.00 0.00 0.00 85 992.6
20200408083019 63 175 0.0 0.0 0.00 0.00 0.00 84 992.6
20200408082913 63 161 0.0 0.0 0.00 0.00 0.00 84 992.6
20200408082806 63 160 0.0 0.0 0.00 0.00 0.00 84 992.7
20200408082701 63 160 0.0 0.0 0.00 0.00 0.00 84 992.7
20200408082554 63 160 0.0 0.0 0.00 0.00 0.00 84 992.6
20200408082446 63 160 0.0 0.0 0.00 0.00 0.00 84 992.7
20200408082340 63 160 0.0 0.0 0.00 0.00 0.00 84 992.6
20200408082235 63 161 0.0 0.0 0.00 0.00 0.00 84 992.7
20200408082132 63 160 0.0 0.0 0.00 0.00 0.00 84 992.7
20200408082029 63 160 0.0 0.0 0.00 0.00 0.00 84 992.7
20200408081924 63 161 0.0 0.0 0.00 0.00 0.00 84 992.8
20200408081820 63 161 0.0 0.0 0.00 0.00 0.00 84 992.8
20200408081715 63 161 0.0 0.0 0.00 0.00 0.00 84 992.8
20200408081610 63 161 0.0 0.0 0.00 0.00 0.00 84 992.8
20200408081508 63 161 0.0 0.0 0.00 0.00 0.00 84 992.8
20200408081402 63 161 0.0 0.0 0.00 0.00 0.00 84 992.8
20200408081258 63 161 0.0 0.0 0.00 0.00 0.00 84 992.8
20200408081151 63 33 0.0 0.0 0.00 0.00 0.00 84 992.8
20200408081047 63 32 0.0 0.0 0.00 0.00 0.00 84 992.8
20200408080941 63 60 0.0 0.0 0.00 0.00 0.00 84 992.8
20200408080837 63 279 0.0 0.0 0.00 0.00 0.00 84 992.7
20200408080734 63 273 0.0 0.0 0.00 0.00 0.00 84 992.8
20200408080627 63 273 0.0 0.0 0.00 0.00 0.00 84 992.7
20200408080522 63 307 0.0 0.0 0.00 0.00 0.00 84 992.7
20200408080418 63 246 0.0 0.0 0.00 0.00 0.00 84 992.7
20200408080316 63 246 0.0 3.0 0.00 0.00 0.00 84 992.7
20200408080210 63 244 0.0 0.0 0.00 0.00 0.00 84 992.7
20200408080105 63 244 0.0 3.0 0.00 0.00 0.00 84 992.8
20200408080000 63 244 0.0 3.0 0.00 0.00 0.00 84 992.7
20200408075855 63 245 0.0 3.0 0.00 0.00 0.00 84 992.7
20200408075752 63 98 0.0 0.0 0.00 0.00 0.00 84 992.7
20200408075646 63 154 0.0 0.0 0.00 0.00 0.00 84 992.7
20200408075543 63 154 0.0 0.0 0.00 0.00 0.00 84 992.7
20200408075436 63 154 0.0 0.0 0.00 0.00 0.00 84 992.7
20200408075332 63 154 0.0 0.0 0.00 0.00 0.00 84 992.7
20200408075230 63 120 0.0 0.0 0.00 0.00 0.00 84 992.7
20200408075127 63 120 0.0 0.0 0.00 0.00 0.00 84 992.7
20200408075022 63 144 0.0 0.0 0.00 0.00 0.00 83 992.7
20200408074919 63 153 0.0 0.0 0.00 0.00 0.00 83 992.7
20200408074812 63 153 0.0 0.0 0.00 0.00 0.00 83 992.7
20200408074710 63 153 0.0 0.0 0.00 0.00 0.00 83 992.7
20200408074607 63 153 0.0 0.0 0.00 0.00 0.00 83 992.8
20200408074502 63 153 0.0 0.0 0.00 0.00 0.00 83 992.7
20200408074359 63 153 0.0 0.0 0.00 0.00 0.00 83 992.7
20200408074257 63 153 0.0 0.0 0.00 0.00 0.00 83 992.7
20200408074152 63 153 0.0 0.0 0.00 0.00 0.00 83 992.7
20200408074046 63 153 0.0 0.0 0.00 0.00 0.00 83 992.7
20200408073944 63 153 0.0 0.0 0.00 0.00 0.00 83 992.8
20200408073840 63 153 0.0 0.0 0.00 0.00 0.00 83 992.8
20200408073734 63 153 0.0 0.0 0.00 0.00 0.00 83 992.8
20200408073627 63 209 0.0 0.0 0.00 0.00 0.00 83 992.7
20200408073523 63 215 0.0 0.0 0.00 0.00 0.00 83 992.8
20200408073418 63 215 0.0 0.0 0.00 0.00 0.00 83 992.8
20200408073314 63 215 0.0 0.0 0.00 0.00 0.00 83 992.8
20200408073212 63 215 0.0 1.0 0.00 0.00 0.00 83 992.7
20200408073104 63 59 0.0 1.0 0.00 0.00 0.00 83 992.7
20200408072958 63 61 0.0 0.0 0.00 0.00 0.00 83 992.7
20200408072851 63 110 0.0 0.0 0.00 0.00 0.00 83 992.7
20200408072748 63 110 0.0 0.0 0.00 0.00 0.00 83 992.7
20200408072640 63 110 0.0 0.0 0.00 0.00 0.00 83 992.9
20200408072539 63 110 0.0 0.0 0.00 0.00 0.00 83 992.9
20200408072431 63 88 0.0 0.0 0.00 0.00 0.00 83 992.9
20200408072327 63 88 0.0 0.0 0.00 0.00 0.00 83 992.9
20200408072220 63 88 0.0 0.0 0.00 0.00 0.00 83 992.9
20200408072116 63 86 0.0 0.0 0.00 0.00 0.00 83 992.9
20200408072012 63 87 0.0 0.0 0.00 0.00 0.00 83 992.9
20200408071913 63 87 0.0 0.0 0.00 0.00 0.00 83 993.0
20200408071807 63 87 0.0 0.0 0.00 0.00 0.00 83 993.0
20200408071701 63 87 0.0 0.0 0.00 0.00 0.00 83 993.0
20200408071555 63 345 0.0 0.0 0.00 0.00 0.00 83 992.9
20200408071450 63 345 0.0 0.0 0.00 0.00 0.00 83 993.1
20200408071345 63 345 0.0 0.0 0.00 0.00 0.00 83 993.0
20200408071241 63 345 0.0 1.0 0.00 0.00 0.00 83 993.1
20200408071136 63 345 0.0 1.0 0.00 0.00 0.00 84 993.1
20200408071032 63 345 0.0 1.0 0.00 0.00 0.00 83 993.2
20200408070926 63 223 0.0 0.0 0.00 0.00 0.00 83 993.2
20200408070824 63 223 0.0 0.0 0.00 0.00 0.00 83 993.1
20200408070721 63 223 0.0 0.0 0.00 0.00 0.00 83 993.2
20200408070616 63 223 0.0 0.0 0.00 0.00 0.00 83 993.2
20200408070508 63 223 0.0 0.0 0.00 0.00 0.00 83 993.2
20200408070404 63 223 0.0 0.0 0.00 0.00 0.00 83 993.2
20200408070302 63 223 0.0 0.0 0.00 0.00 0.00 82 993.2
20200408070158 63 223 0.0 0.0 0.00 0.00 0.00 82 993.2
20200408070055 63 223 0.0 0.0 0.00 0.00 0.00 82 993.2
20200408065948 63 223 0.0 0.0 0.00 0.00 0.00 82 993.3
20200408065846 63 223 0.0 0.0 0.00 0.00 0.00 82 993.3
20200408065743 63 223 0.0 0.0 0.00 0.00 0.00 82 993.3
20200408065638 63 223 0.0 0.0 0.00 0.00 0.00 82 993.3
20200408065533 63 223 0.0 0.0 0.00 0.00 0.00 82 993.3
20200408065431 63 223 0.0 0.0 0.00 0.00 0.00 82 993.3
20200408065327 63 223 0.0 0.0 0.00 0.00 0.00 82 993.3
20200408065221 63 223 0.0 0.0 0.00 0.00 0.00 82 993.3
20200408065114 63 223 0.0 0.0 0.00 0.00 0.00 82 993.4
20200408065007 63 223 0.0 0.0 0.00 0.00 0.00 82 993.3
20200408064905 63 223 0.0 0.0 0.00 0.00 0.00 82 993.4
20200408064806 63 223 0.0 0.0 0.00 0.00 0.00 82 993.3
20200408064717 63 223 0.0 0.0 0.00 0.00 0.00 82 993.4
20200408064548 63 223 0.0 0.0 0.00 0.00 0.00 81 993.4
20200408064446 63 223 0.0 0.0 0.00 0.00 0.00 81 993.4
20200408064340 63 223 0.0 0.0 0.00 0.00 0.00 81 993.5
20200408064236 63 223 0.0 0.0 0.00 0.00 0.00 81 993.4
20200408064133 63 223 0.0 0.0 0.00 0.00 0.00 81 993.4
20200408064028 63 223 0.0 0.0 0.00 0.00 0.00 81 993.4
20200408063925 64 223 0.0 0.0 0.00 0.00 0.00 81 993.4
20200408063820 64 223 0.0 0.0 0.00 0.00 0.00 81 993.5
20200408063717 64 223 0.0 0.0 0.00 0.00 0.00 81 993.4
20200408063614 64 223 0.0 0.0 0.00 0.00 0.00 81 993.4
20200408063509 64 223 0.0 0.0 0.00 0.00 0.00 81 993.5
20200408063406 64 223 0.0 0.0 0.00 0.00 0.00 80 993.5
20200408063302 64 223 0.0 0.0 0.00 0.00 0.00 80 993.5
20200408063200 64 223 0.0 0.0 0.00 0.00 0.00 80 993.5
20200408063054 64 223 0.0 0.0 0.00 0.00 0.00 80 993.5
20200408062954 64 223 0.0 0.0 0.00 0.00 0.00 80 993.5
20200408062849 64 223 0.0 0.0 0.00 0.00 0.00 80 993.6
20200408062741 64 223 0.0 0.0 0.00 0.00 0.00 81 993.6
20200408062635 64 223 0.0 0.0 0.00 0.00 0.00 80 993.7
20200408062528 64 223 0.0 0.0 0.00 0.00 0.00 79 993.6
20200408062423 64 223 0.0 0.0 0.00 0.00 0.00 79 993.7
20200408062318 64 223 0.0 0.0 0.00 0.00 0.00 79 993.7
20200408062213 64 223 0.0 0.0 0.00 0.00 0.00 79 993.7
20200408062107 64 223 0.0 0.0 0.00 0.00 0.00 79 993.7
20200408062003 64 223 0.0 0.0 0.00 0.00 0.00 79 993.7
20200408061856 64 223 0.0 0.0 0.00 0.00 0.00 79 993.8
20200408061749 64 223 0.0 0.0 0.00 0.00 0.00 79 993.9
20200408061648 65 223 0.0 0.0 0.00 0.00 0.00 78 993.8
20200408061546 65 223 0.0 0.0 0.00 0.00 0.00 78 993.8
20200408061444 65 223 0.0 0.0 0.00 0.00 0.00 78 993.8
20200408061337 65 223 0.0 0.0 0.00 0.00 0.00 78 993.7
20200408061234 65 223 0.0 0.0 0.00 0.00 0.00 78 993.8
20200408061127 65 223 0.0 0.0 0.00 0.00 0.00 78 993.9
20200408061021 65 223 0.0 0.0 0.00 0.00 0.00 78 993.8
20200408060917 65 223 0.0 0.0 0.00 0.00 0.00 78 993.8
20200408060814 65 223 0.0 0.0 0.00 0.00 0.00 78 993.9
20200408060710 65 223 0.0 0.0 0.00 0.00 0.00 78 993.8
20200408060605 65 223 0.0 0.0 0.00 0.00 0.00 78 994.0
20200408060459 65 223 0.0 0.0 0.00 0.00 0.00 78 993.9
20200408060353 65 223 0.0 0.0 0.00 0.00 0.00 78 993.9
20200408060251 65 223 0.0 0.0 0.00 0.00 0.00 78 993.9
20200408060148 65 65 0.0 0.0 0.00 0.00 0.00 78 993.9
20200408060041 65 64 0.0 0.0 0.00 0.00 0.00 78 993.9
20200408055935 65 64 0.0 0.0 0.00 0.00 0.00 78 994.0
20200408055830 65 64 0.0 0.0 0.00 0.00 0.00 78 994.0
20200408055724 65 64 0.0 1.0 0.00 0.00 0.00 78 993.9
20200408055621 65 34 0.0 0.0 0.00 0.00 0.00 78 994.0
20200408055514 65 242 0.0 0.0 0.00 0.00 0.00 78 994.0
20200408055409 65 103 0.0 0.0 0.00 0.00 0.00 77 994.0
20200408055306 65 103 0.0 0.0 0.00 0.00 0.00 77 994.0
20200408055202 65 103 0.0 0.0 0.00 0.00 0.00 77 994.1
20200408055056 65 103 0.0 0.0 0.00 0.00 0.00 77 994.1
20200408054952 65 103 0.0 0.0 0.00 0.00 0.00 77 994.1
20200408054847 65 103 0.0 0.0 0.00 0.00 0.00 77 994.1
20200408054740 65 103 0.0 0.0 0.00 0.00 0.00 77 994.1
20200408054638 65 103 0.0 0.0 0.00 0.00 0.00 77 994.2
20200408054536 65 103 0.0 0.0 0.00 0.00 0.00 77 994.2
20200408054431 65 104 0.0 0.0 0.00 0.00 0.00 77 994.2
20200408054329 65 105 0.0 0.0 0.00 0.00 0.00 77 994.2
20200408054223 65 104 0.0 0.0 0.00 0.00 0.00 77 994.2
20200408054121 65 105 0.0 0.0 0.00 0.00 0.00 77 994.2
20200408054015 65 104 0.0 0.0 0.00 0.00 0.00 77 994.2
20200408053912 65 105 0.0 0.0 0.00 0.00 0.00 77 994.2
20200408053809 65 105 0.0 0.0 0.00 0.00 0.00 78 994.2
20200408053706 65 104 0.0 0.0 0.00 0.00 0.00 77 994.2
20200408053603 65 84 0.0 0.0 0.00 0.00 0.00 77 994.3
20200408053458 65 84 0.0 0.0 0.00 0.00 0.00 77 994.2
20200408053351 65 84 0.0 0.0 0.00 0.00 0.00 77 994.3
20200408053249 65 84 0.0 0.0 0.00 0.00 0.00 76 994.3
20200408053145 65 84 0.0 0.0 0.00 0.00 0.00 76 994.3
20200408053039 65 84 0.0 0.0 0.00 0.00 0.00 76 994.3
20200408052936 65 84 0.0 0.0 0.00 0.00 0.00 76 994.4
20200408052828 65 84 0.0 0.0 0.00 0.00 0.00 76 994.4
20200408052721 65 84 0.0 0.0 0.00 0.00 0.00 76 994.4
20200408052614 65 84 0.0 0.0 0.00 0.00 0.00 76 994.4
20200408052509 65 84 0.0 0.0 0.00 0.00 0.00 76 994.5
20200408052402 65 84 0.0 0.0 0.00 0.00 0.00 76 994.4
20200408052257 65 84 0.0 0.0 0.00 0.00 0.00 76 994.5
20200408052155 65 84 0.0 0.0 0.00 0.00 0.00 76 994.5
20200408052048 65 84 0.0 0.0 0.00 0.00 0.00 76 994.4
20200408051942 65 84 0.0 0.0 0.00 0.00 0.00 76 994.4
20200408051836 65 84 0.0 0.0 0.00 0.00 0.00 76 994.4
20200408051730 65 84 0.0 1.0 0.00 0.00 0.00 76 994.4
20200408051623 65 84 0.0 1.0 0.00 0.00 0.00 77 994.5
20200408051517 65 183 0.0 0.0 0.00 0.00 0.00 76 994.5
20200408051415 65 183 0.0 0.0 0.00 0.00 0.00 76 994.5
20200408051313 65 183 0.0 0.0 0.00 0.00 0.00 76 994.5
20200408051204 65 183 0.0 0.0 0.00 0.00 0.00 77 994.5
20200408051101 65 182 0.0 0.0 0.00 0.00 0.00 76 994.5
20200408050959 65 183 0.0 0.0 0.00 0.00 0.00 76 994.5
20200408050857 65 183 0.0 0.0 0.00 0.00 0.00 76 994.6
20200408050750 65 183 0.0 0.0 0.00 0.00 0.00 76 994.5
20200408050646 65 182 0.0 0.0 0.00 0.00 0.00 76 994.6
20200408050539 65 182 0.0 0.0 0.00 0.00 0.00 76 994.5
20200408050434 65 182 0.0 0.0 0.00 0.00 0.00 76 994.5
20200408050327 65 182 0.0 0.0 0.00 0.00 0.00 76 994.4
20200408050220 65 182 0.0 0.0 0.00 0.00 0.00 76 994.6
20200408050114 65 182 0.0 0.0 0.00 0.00 0.00 76 994.6
20200408050011 65 182 0.0 0.0 0.00 0.00 0.00 76 994.6
20200408045905 65 183 0.0 0.0 0.00 0.00 0.00 77 994.7
20200408045800 65 182 0.0 0.0 0.00 0.00 0.00 76 994.6
20200408045656 65 183 0.0 0.0 0.00 0.00 0.00 77 994.7
20200408045552 65 183 0.0 0.0 0.00 0.00 0.00 76 994.7
20200408045446 65 181 0.0 0.0 0.00 0.00 0.00 76 994.7
20200408045340 65 181 0.0 0.0 0.00 0.00 0.00 76 994.8
20200408045234 65 181 0.0 0.0 0.00 0.00 0.00 76 994.9
20200408045127 65 181 0.0 0.0 0.00 0.00 0.00 76 994.8
20200408045023 65 181 0.0 0.0 0.00 0.00 0.00 76 994.8
20200408044919 65 181 0.0 0.0 0.00 0.00 0.00 76 994.8
20200408044813 65 181 0.0 0.0 0.00 0.00 0.00 76 994.9
20200408044706 65 181 0.0 0.0 0.00 0.00 0.00 76 994.8
20200408044604 65 181 0.0 0.0 0.00 0.00 0.00 76 994.8
20200408044458 65 181 0.0 0.0 0.00 0.00 0.00 76 994.8
20200408044355 65 181 0.0 0.0 0.00 0.00 0.00 76 994.8
20200408044252 65 181 0.0 0.0 0.00 0.00 0.00 76 994.7
20200408044147 65 181 0.0 0.0 0.00 0.00 0.00 75 994.8
20200408044045 65 181 0.0 0.0 0.00 0.00 0.00 75 994.8
20200408043941 65 181 0.0 0.0 0.00 0.00 0.00 76 994.8
20200408043836 65 181 0.0 0.0 0.00 0.00 0.00 76 994.8
20200408043733 65 181 0.0 0.0 0.00 0.00 0.00 76 994.8
20200408043628 65 181 0.0 0.0 0.00 0.00 0.00 76 994.8
20200408043526 65 181 0.0 0.0 0.00 0.00 0.00 76 994.8
20200408043419 65 181 0.0 0.0 0.00 0.00 0.00 76 994.8
20200408043315 65 225 0.0 0.0 0.00 0.00 0.00 76 994.8
20200408043209 65 225 0.0 0.0 0.00 0.00 0.00 76 994.9
20200408043102 65 225 0.0 0.0 0.00 0.00 0.00 76 994.9
20200408042959 65 225 0.0 0.0 0.00 0.00 0.00 76 995.0
20200408042854 65 225 0.0 0.0 0.00 0.00 0.00 76 995.0
20200408042752 65 225 0.0 0.0 0.00 0.00 0.00 76 994.9
20200408042650 65 225 0.0 0.0 0.00 0.00 0.00 76 995.0
20200408042547 65 225 0.0 0.0 0.00 0.00 0.00 76 995.0
20200408042443 65 225 0.0 0.0 0.00 0.00 0.00 77 994.9
20200408042339 65 225 0.0 0.0 0.00 0.00 0.00 77 994.9
20200408042232 65 225 0.0 0.0 0.00 0.00 0.00 76 995.0
20200408042131 65 225 0.0 0.0 0.00 0.00 0.00 75 995.0
20200408042024 65 225 0.0 0.0 0.00 0.00 0.00 76 994.9
20200408041919 65 225 0.0 0.0 0.00 0.00 0.00 76 995.0
20200408041816 65 225 0.0 0.0 0.00 0.00 0.00 76 995.0
20200408041710 65 225 0.0 0.0 0.00 0.00 0.00 76 995.1
20200408041604 65 225 0.0 0.0 0.00 0.00 0.00 75 995.1
20200408041502 65 225 0.0 0.0 0.00 0.00 0.00 75 995.2
20200408041355 65 225 0.0 0.0 0.00 0.00 0.00 75 995.1
20200408041249 65 225 0.0 0.0 0.00 0.00 0.00 75 995.1
20200408041146 66 225 0.0 0.0 0.00 0.00 0.00 75 995.1
20200408041042 65 225 0.0 0.0 0.00 0.00 0.00 74 995.1
20200408040939 66 225 0.0 0.0 0.00 0.00 0.00 75 995.1
20200408040838 66 225 0.0 0.0 0.00 0.00 0.00 75 995.1
20200408040735 66 225 0.0 0.0 0.00 0.00 0.00 75 995.1
20200408040629 66 225 0.0 0.0 0.00 0.00 0.00 75 995.2
20200408040525 66 225 0.0 0.0 0.00 0.00 0.00 75 995.2
20200408040422 66 225 0.0 0.0 0.00 0.00 0.00 74 995.2
20200408040318 66 225 0.0 0.0 0.00 0.00 0.00 75 995.2
20200408040215 66 225 0.0 0.0 0.00 0.00 0.00 75 995.3
20200408040110 66 225 0.0 0.0 0.00 0.00 0.00 75 995.3
20200408040003 66 225 0.0 0.0 0.00 0.00 0.00 75 995.3
20200408035859 66 225 0.0 0.0 0.00 0.00 0.00 75 995.4
20200408035756 66 225 0.0 0.0 0.00 0.00 0.00 75 995.4
20200408035650 65 225 0.0 0.0 0.00 0.00 0.00 75 995.5
20200408035545 65 225 0.0 0.0 0.00 0.00 0.00 76 995.4
20200408035437 65 225 0.0 0.0 0.00 0.00 0.00 76 995.4
20200408035332 65 225 0.0 0.0 0.00 0.00 0.00 75 995.4
20200408035228 65 225 0.0 0.0 0.00 0.00 0.00 75 995.4
20200408035122 65 225 0.0 0.0 0.00 0.00 0.00 75 995.5
20200408035019 65 225 0.0 0.0 0.00 0.00 0.00 76 995.5
20200408034913 65 225 0.0 0.0 0.00 0.00 0.00 76 995.5
20200408034808 65 225 0.0 0.0 0.00 0.00 0.00 76 995.5
20200408034700 65 225 0.0 0.0 0.00 0.00 0.00 75 995.6
20200408034553 65 225 0.0 0.0 0.00 0.00 0.00 75 995.6
20200408034448 66 225 0.0 0.0 0.00 0.00 0.00 75 995.6
20200408034341 66 225 0.0 0.0 0.00 0.00 0.00 75 995.6
20200408034239 66 225 0.0 0.0 0.00 0.00 0.00 75 995.6
20200408034140 66 225 0.0 0.0 0.00 0.00 0.00 74 995.6
20200408034032 65 225 0.0 0.0 0.00 0.00 0.00 74 995.7
20200408033925 65 225 0.0 0.0 0.00 0.00 0.00 75 995.6
20200408033818 65 225 0.0 0.0 0.00 0.00 0.00 74 995.6
20200408033716 65 225 0.0 0.0 0.00 0.00 0.00 75 995.7
20200408033611 66 225 0.0 0.0 0.00 0.00 0.00 75 995.7
20200408033504 66 225 0.0 0.0 0.00 0.00 0.00 75 995.7
20200408033359 66 225 0.0 0.0 0.00 0.00 0.00 75 995.7
20200408033252 66 225 0.0 0.0 0.00 0.00 0.00 75 995.6
20200408033147 66 225 0.0 0.0 0.00 0.00 0.00 76 995.7
20200408033040 66 225 0.0 0.0 0.00 0.00 0.00 76 995.7
20200408032937 66 225 0.0 0.0 0.00 0.00 0.00 74 995.7
20200408032835 66 225 0.0 0.0 0.00 0.00 0.00 75 995.7
20200408032731 66 225 0.0 0.0 0.00 0.00 0.00 75 995.8
20200408032626 66 225 0.0 0.0 0.00 0.00 0.00 75 995.7
20200408032524 66 225 0.0 0.0 0.00 0.00 0.00 75 995.8
20200408032422 66 225 0.0 0.0 0.00 0.00 0.00 75 995.9
20200408032319 66 225 0.0 0.0 0.00 0.00 0.00 75 995.8
20200408032214 66 225 0.0 0.0 0.00 0.00 0.00 74 995.8
20200408032111 66 225 0.0 0.0 0.00 0.00 0.00 74 995.8
20200408032004 66 225 0.0 0.0 0.00 0.00 0.00 74 995.8
20200408031902 66 225 0.0 0.0 0.00 0.00 0.00 74 995.8
20200408031756 66 225 0.0 0.0 0.00 0.00 0.00 75 995.8
20200408031654 66 225 0.0 0.0 0.00 0.00 0.00 75 995.9
20200408031548 66 225 0.0 0.0 0.00 0.00 0.00 74 995.8
20200408031445 66 225 0.0 0.0 0.00 0.00 0.00 74 995.9
20200408031342 66 225 0.0 0.0 0.00 0.00 0.00 74 995.8
20200408031238 66 225 0.0 0.0 0.00 0.00 0.00 74 995.9
20200408031133 66 225 0.0 0.0 0.00 0.00 0.00 75 996.0
20200408031027 66 225 0.0 0.0 0.00 0.00 0.00 75 995.9
20200408030925 66 225 0.0 0.0 0.00 0.00 0.00 74 995.8
20200408030821 66 225 0.0 0.0 0.00 0.00 0.00 74 995.9
20200408030717 66 225 0.0 0.0 0.00 0.00 0.00 74 995.9
20200408030614 66 225 0.0 0.0 0.00 0.00 0.00 73 995.9
20200408030510 66 225 0.0 0.0 0.00 0.00 0.00 74 995.9
20200408030405 66 225 0.0 0.0 0.00 0.00 0.00 74 995.8
20200408030303 66 225 0.0 0.0 0.00 0.00 0.00 74 995.9
20200408030158 66 225 0.0 0.0 0.00 0.00 0.00 74 995.9
20200408030054 66 225 0.0 0.0 0.00 0.00 0.00 74 995.9
20200408025947 66 225 0.0 0.0 0.00 0.00 0.00 74 996.0
20200408025843 66 225 0.0 0.0 0.00 0.00 0.00 75 995.8
20200408025735 66 225 0.0 0.0 0.00 0.00 0.00 74 995.9
20200408025630 66 225 0.0 0.0 0.00 0.00 0.00 74 996.0
20200408025525 66 225 0.0 0.0 0.00 0.00 0.00 73 995.9
20200408025418 66 225 0.0 0.0 0.00 0.00 0.00 73 995.9
20200408025312 66 225 0.0 0.0 0.00 0.00 0.00 73 995.9
20200408025210 66 225 0.0 0.0 0.00 0.00 0.00 73 995.8
20200408025103 66 225 0.0 0.0 0.00 0.00 0.00 73 995.8
20200408025000 66 225 0.0 0.0 0.00 0.00 0.00 73 996.0
20200408024854 66 225 0.0 0.0 0.00 0.00 0.00 73 995.9
20200408024752 66 225 0.0 0.0 0.00 0.00 0.00 73 995.8
20200408024647 66 225 0.0 0.0 0.00 0.00 0.00 73 995.9
20200408024544 66 225 0.0 0.0 0.00 0.00 0.00 73 995.8
20200408024439 66 225 0.0 0.0 0.00 0.00 0.00 73 995.9
20200408024336 66 225 0.0 0.0 0.00 0.00 0.00 73 995.9
20200408024231 66 225 0.0 0.0 0.00 0.00 0.00 73 995.9
20200408024129 66 225 0.0 0.0 0.00 0.00 0.00 73 996.0
20200408024026 66 225 0.0 0.0 0.00 0.00 0.00 73 995.9
20200408023922 66 225 0.0 0.0 0.00 0.00 0.00 73 996.0
20200408023818 66 225 0.0 0.0 0.00 0.00 0.00 72 995.9
20200408023713 67 225 0.0 0.0 0.00 0.00 0.00 73 996.0
20200408023610 67 225 0.0 0.0 0.00 0.00 0.00 73 996.0
20200408023507 67 225 0.0 0.0 0.00 0.00 0.00 72 995.9
20200408023401 67 225 0.0 0.0 0.00 0.00 0.00 72 996.0
20200408023253 67 225 0.0 0.0 0.00 0.00 0.00 72 996.0
20200408023151 67 225 0.0 0.0 0.00 0.00 0.00 72 996.0
20200408023046 67 225 0.0 0.0 0.00 0.00 0.00 72 996.0
20200408022943 67 225 0.0 0.0 0.00 0.00 0.00 73 996.0
20200408022837 67 225 0.0 0.0 0.00 0.00 0.00 72 996.0
20200408022733 67 225 0.0 0.0 0.00 0.00 0.00 74 996.0
20200408022628 67 225 0.0 0.0 0.00 0.00 0.00 72 996.0
20200408022522 67 225 0.0 0.0 0.00 0.00 0.00 72 996.0
20200408022417 67 225 0.0 0.0 0.00 0.00 0.00 71 996.1
20200408022311 67 225 0.0 0.0 0.00 0.00 0.00 71 996.0
20200408022206 67 225 0.0 0.0 0.00 0.00 0.00 71 996.1
20200408022101 67 225 0.0 0.0 0.00 0.00 0.00 71 996.1
20200408021955 67 225 0.0 0.0 0.00 0.00 0.00 71 996.1
20200408021848 67 225 0.0 0.0 0.00 0.00 0.00 71 996.1
20200408021742 67 225 0.0 0.0 0.00 0.00 0.00 71 996.1
20200408021638 67 225 0.0 0.0 0.00 0.00 0.00 71 996.1
20200408021532 67 225 0.0 0.0 0.00 0.00 0.00 71 996.1
20200408021424 67 225 0.0 0.0 0.00 0.00 0.00 71 996.1
20200408021318 67 225 0.0 0.0 0.00 0.00 0.00 71 996.1
20200408021214 67 225 0.0 0.0 0.00 0.00 0.00 71 996.1
20200408021112 67 225 0.0 0.0 0.00 0.00 0.00 71 996.1
20200408021010 67 225 0.0 0.0 0.00 0.00 0.00 70 996.1
20200408020902 67 225 0.0 0.0 0.00 0.00 0.00 70 996.1
20200408020758 68 225 0.0 0.0 0.00 0.00 0.00 70 996.0
20200408020653 68 225 0.0 0.0 0.00 0.00 0.00 70 996.1
20200408020548 68 225 0.0 0.0 0.00 0.00 0.00 70 996.1
20200408020446 68 225 0.0 0.0 0.00 0.00 0.00 70 996.1
20200408020338 68 225 0.0 0.0 0.00 0.00 0.00 70 996.0
20200408020232 68 225 0.0 0.0 0.00 0.00 0.00 70 996.0
20200408020128 68 225 0.0 0.0 0.00 0.00 0.00 70 996.1
20200408020021 68 225 0.0 0.0 0.00 0.00 0.00 70 996.0
20200408015915 68 225 0.0 0.0 0.00 0.00 0.00 70 996.1
20200408015809 68 225 0.0 0.0 0.00 0.00 0.00 69 996.0
20200408015704 68 225 0.0 0.0 0.00 0.00 0.00 70 996.0
20200408015601 68 225 0.0 0.0 0.00 0.00 0.00 69 996.1
20200408015454 68 225 0.0 0.0 0.00 0.00 0.00 70 996.1
20200408015352 68 225 0.0 0.0 0.00 0.00 0.00 70 996.0
20200408015245 68 225 0.0 0.0 0.00 0.00 0.00 69 996.1
20200408015141 68 225 0.0 0.0 0.00 0.00 0.00 69 996.1
20200408015034 68 225 0.0 0.0 0.00 0.00 0.00 69 996.1
20200408014930 68 225 0.0 0.0 0.00 0.00 0.00 70 996.0
20200408014823 68 225 0.0 0.0 0.00 0.00 0.00 70 996.2
20200408014719 68 225 0.0 0.0 0.00 0.00 0.00 69 996.1
20200408014613 68 225 0.0 0.0 0.00 0.00 0.00 69 996.1
20200408014506 68 225 0.0 0.0 0.00 0.00 0.00 70 996.1
20200408014400 68 225 0.0 0.0 0.00 0.00 0.00 70 996.0
20200408014257 68 225 0.0 0.0 0.00 0.00 0.00 69 996.1
20200408014155 68 225 0.0 0.0 0.00 0.00 0.00 69 996.1
20200408014048 68 225 0.0 0.0 0.00 0.00 0.00 69 996.1
20200408013943 68 225 0.0 0.0 0.00 0.00 0.00 69 996.1
20200408013842 68 225 0.0 0.0 0.00 0.00 0.00 70 996.1
20200408013736 68 225 0.0 0.0 0.00 0.00 0.00 69 996.1
20200408013631 68 225 0.0 0.0 0.00 0.00 0.00 70 996.1
20200408013528 68 225 0.0 0.0 0.00 0.00 0.00 69 996.2
20200408013425 68 225 0.0 0.0 0.00 0.00 0.00 69 996.2
20200408013322 68 225 0.0 0.0 0.00 0.00 0.00 69 996.2
20200408013215 68 225 0.0 0.0 0.00 0.00 0.00 70 996.2
20200408013111 68 225 0.0 0.0 0.00 0.00 0.00 70 996.1
20200408013005 68 225 0.0 0.0 0.00 0.00 0.00 70 996.2
20200408012902 68 225 0.0 0.0 0.00 0.00 0.00 70 996.2
20200408012755 68 225 0.0 0.0 0.00 0.00 0.00 71 996.2
20200408012647 68 225 0.0 0.0 0.00 0.00 0.00 70 996.3
20200408012545 69 225 0.0 0.0 0.00 0.00 0.00 71 996.2
20200408012443 69 225 0.0 0.0 0.00 0.00 0.00 70 996.2
20200408012335 69 225 0.0 0.0 0.00 0.00 0.00 70 996.3
20200408012228 69 225 0.0 0.0 0.00 0.00 0.00 69 996.3
20200408012124 69 225 0.0 0.0 0.00 0.00 0.00 69 996.3
20200408012017 69 225 0.0 0.0 0.00 0.00 0.00 69 996.4
20200408011910 69 225 0.0 0.0 0.00 0.00 0.00 69 996.3
20200408011803 69 225 0.0 0.0 0.00 0.00 0.00 69 996.3
20200408011656 69 225 0.0 0.0 0.00 0.00 0.00 69 996.3
20200408011549 69 225 0.0 0.0 0.00 0.00 0.00 69 996.4
20200408011446 69 225 0.0 0.0 0.00 0.00 0.00 69 996.3
20200408011341 69 225 0.0 0.0 0.00 0.00 0.00 69 996.4
20200408011237 69 225 0.0 0.0 0.00 0.00 0.00 68 996.4
20200408011134 69 225 0.0 0.0 0.00 0.00 0.00 68 996.3
20200408011027 69 225 0.0 0.0 0.00 0.00 0.00 67 996.4
20200408010923 69 225 0.0 0.0 0.00 0.00 0.00 67 996.3
20200408010815 69 225 0.0 0.0 0.00 0.00 0.00 67 996.3
20200408010710 69 225 0.0 0.0 0.00 0.00 0.00 67 996.2
20200408010603 69 225 0.0 0.0 0.00 0.00 0.00 68 996.2
20200408010500 70 225 0.0 0.0 0.00 0.00 0.00 67 996.1
20200408010355 70 225 0.0 0.0 0.00 0.00 0.00 67 996.1
20200408010248 70 225 0.0 0.0 0.00 0.00 0.00 68 996.1
20200408010146 70 225 0.0 0.0 0.00 0.00 0.00 69 996.1
20200408010042 70 225 0.0 0.0 0.00 0.00 0.00 67 996.1
20200408005940 70 225 0.0 0.0 0.00 0.00 0.00 67 996.1
20200408005836 70 225 0.0 0.0 0.00 0.00 0.00 68 996.1
20200408005731 70 225 0.0 0.0 0.00 0.00 0.00 68 996.1
20200408005629 70 266 0.0 0.0 0.00 0.00 0.00 67 996.1
20200408005522 70 294 0.0 0.0 0.00 0.00 0.00 67 996.1
20200408005417 70 294 0.0 0.0 0.00 0.00 0.00 67 996.1
20200408005310 70 294 0.0 0.0 0.00 0.00 0.00 67 996.1
20200408005204 70 294 0.0 0.0 0.00 0.00 0.00 67 996.1
20200408005057 70 294 0.0 0.0 0.00 0.00 0.00 66 996.1
20200408004950 70 294 0.0 0.0 0.00 0.00 0.00 67 996.1
20200408004847 70 294 0.0 0.0 0.00 0.00 0.00 66 996.2
20200408004740 70 294 0.0 0.0 0.00 0.00 0.00 66 996.2
20200408004638 70 294 0.0 0.0 0.00 0.00 0.00 67 996.2
20200408004533 70 294 0.0 0.0 0.00 0.00 0.00 66 996.2
20200408004433 70 294 0.0 0.0 0.00 0.00 0.00 66 996.0
20200408004324 70 294 0.0 0.0 0.00 0.00 0.00 67 996.0
20200408004218 70 294 0.0 0.0 0.00 0.00 0.00 66 996.1
20200408004112 71 294 0.0 0.0 0.00 0.00 0.00 66 996.0
20200408004006 71 294 0.0 0.0 0.00 0.00 0.00 66 996.1
20200408003900 71 294 0.0 0.0 0.00 0.00 0.00 66 996.0
20200408003754 71 294 0.0 0.0 0.00 0.00 0.00 65 996.0
20200408003648 71 244 0.0 0.0 0.00 0.00 0.00 66 996.0
20200408003544 71 244 0.0 0.0 0.00 0.00 0.00 66 996.0
20200408003440 71 244 0.0 0.0 0.00 0.00 0.00 66 996.0
20200408003334 71 244 0.0 0.0 0.00 0.00 0.00 66 996.1
20200408003230 71 244 0.0 0.0 0.00 0.00 0.00 66 996.0
20200408003128 71 244 0.0 0.0 0.00 0.00 0.00 66 996.0
20200408003023 71 244 0.0 0.0 0.00 0.00 0.00 65 996.0
20200408002918 71 244 0.0 0.0 0.00 0.00 0.00 66 996.0
20200408002813 71 244 0.0 0.0 0.00 0.00 0.00 66 996.0
20200408002708 71 244 0.0 0.0 0.00 0.00 0.00 67 996.0
20200408002605 71 244 0.0 0.0 0.00 0.00 0.00 67 996.0
20200408002500 71 244 0.0 0.0 0.00 0.00 0.00 66 996.0
20200408002353 71 244 0.0 0.0 0.00 0.00 0.00 65 996.0
20200408002247 71 244 0.0 0.0 0.00 0.00 0.00 67 995.9
20200408002144 72 244 0.0 0.0 0.00 0.00 0.00 66 995.9
20200408002039 72 244 0.0 0.0 0.00 0.00 0.00 65 996.0
20200408001934 72 244 0.0 0.0 0.00 0.00 0.00 65 996.0
20200408001832 72 244 0.0 0.0 0.00 0.00 0.00 64 995.9
20200408001723 72 244 0.0 1.0 0.00 0.00 0.00 65 996.0
20200408001621 72 152 0.0 1.0 0.00 0.00 0.00 65 995.9
20200408001518 72 225 0.0 0.0 0.00 0.00 0.00 64 995.9
20200408001410 72 225 0.0 0.0 0.00 0.00 0.00 65 996.0
20200408000955 72 119 0.0 0.0 0.00 0.00 0.00 64 995.9
20200408000849 72 119 0.0 0.0 0.00 0.00 0.00 64 995.9
20200408000742 72 119 0.0 0.0 0.00 0.00 0.00 64 995.8
20200408000639 72 119 0.0 0.0 0.00 0.00 0.00 64 995.9
20200408000534 72 119 0.0 0.0 0.00 0.00 0.00 64 995.8
20200408000432 72 119 0.0 0.0 0.00 0.00 0.00 64 995.9
20200408000325 72 119 0.0 0.0 0.00 0.00 0.00 64 995.8
20200408000220 72 119 0.0 0.0 0.00 0.00 0.00 64 995.9
20200408000117 72 119 0.0 0.0 0.00 0.00 0.00 64 995.9
20200408000012 72 119 0.0 0.0 0.00 0.00 0.00 64 996.0
20200407235907 72 119 0.0 0.0 0.00 0.00 0.00 64 996.0
20200407235759 73 119 0.0 0.0 0.00 0.00 0.00 63 996.0
20200407235655 73 119 0.0 0.0 0.00 0.00 0.00 63 996.0
20200407235552 73 119 0.0 0.0 0.00 0.00 0.00 64 995.9
20200407235451 73 119 0.0 0.0 0.00 0.00 0.00 64 996.0
20200407235345 73 120 0.0 0.0 0.00 0.00 0.00 65 996.0
20200407235243 73 119 0.0 0.0 0.00 0.00 0.00 63 996.0
20200407235140 73 120 0.0 0.0 0.00 0.00 0.00 64 996.0
20200407235037 73 119 0.0 0.0 0.00 0.00 0.00 64 996.0
20200407234931 73 26 0.0 0.0 0.00 0.00 0.00 64 996.1
20200407234828 73 26 0.0 0.0 0.00 0.00 0.00 65 996.1
20200407234723 73 26 0.0 0.0 0.00 0.00 0.00 65 996.1
20200407234620 73 26 0.0 0.0 0.00 0.00 0.00 64 996.0
20200407234514 73 26 0.0 0.0 0.00 0.00 0.00 63 996.0
20200407234408 73 319 0.0 0.0 0.00 0.00 0.00 64 996.1
20200407234303 73 319 0.0 0.0 0.00 0.00 0.00 65 996.2
20200407234200 73 319 0.0 0.0 0.00 0.00 0.00 64 996.1
20200407234056 73 319 0.0 0.0 0.00 0.00 0.00 64 996.0
20200407233951 73 319 0.0 0.0 0.00 0.00 0.00 64 996.1
20200407233847 73 319 0.0 0.0 0.00 0.00 0.00 65 996.1
20200407233741 73 319 0.0 0.0 0.00 0.00 0.00 65 996.1
20200407233637 73 319 0.0 0.0 0.00 0.00 0.00 66 996.1
20200407233533 73 319 0.0 0.0 0.00 0.00 0.00 65 996.2
20200407233427 73 318 0.0 1.0 0.00 0.00 0.00 63 996.2
20200407233321 73 341 0.0 0.0 0.00 0.00 0.00 63 996.3
20200407233217 74 45 0.0 0.0 0.00 0.00 0.00 64 996.2
20200407233110 74 45 0.0 0.0 0.00 0.00 0.00 64 996.2
20200407233008 74 45 0.0 0.0 0.00 0.00 0.00 65 996.2
20200407232905 74 45 0.0 0.0 0.00 0.00 0.00 64 996.2
20200407232758 74 45 0.0 0.0 0.00 0.00 0.00 64 996.2
20200407232652 74 45 0.0 0.0 0.00 0.00 0.00 64 996.2
20200407232545 74 45 0.0 0.0 0.00 0.00 0.00 63 996.2
20200407232440 74 45 0.0 0.0 0.00 0.00 0.00 64 996.2
20200407232336 74 45 0.0 0.0 0.00 0.00 0.00 64 996.2
20200407232234 74 45 0.0 0.0 0.00 0.00 0.00 63 996.2
20200407232132 74 77 0.0 0.0 0.00 0.00 0.00 64 996.3
20200407232025 74 77 0.0 0.0 0.00 0.00 0.00 63 996.3
20200407231920 74 77 0.0 0.0 0.00 0.00 0.00 63 996.3
20200407231818 74 78 0.0 0.0 0.00 0.00 0.00 63 996.3
20200407231712 74 79 0.0 0.0 0.00 0.00 0.00 64 996.3
20200407231606 74 79 0.0 0.0 0.00 0.00 0.00 65 996.3
20200407231501 74 80 0.0 0.0 0.00 0.00 0.00 63 996.3
20200407231356 75 272 0.0 0.0 0.00 0.00 0.00 65 996.3
20200407231252 75 272 0.0 0.0 0.00 0.00 0.00 62 996.3
20200407231149 75 272 0.0 0.0 0.00 0.00 0.00 62 996.3
20200407231044 75 272 0.0 0.0 0.00 0.00 0.00 65 996.3
20200407230937 75 272 0.0 0.0 0.00 0.00 0.00 62 996.4
20200407230835 75 272 0.0 0.0 0.00 0.00 0.00 62 996.4
20200407230727 75 272 0.0 0.0 0.00 0.00 0.00 62 996.3
20200407230621 75 272 0.0 0.0 0.00 0.00 0.00 62 996.3
20200407230515 75 271 0.0 0.0 0.00 0.00 0.00 64 996.4
20200407230410 75 22 0.0 0.0 0.00 0.00 0.00 60 996.3
20200407230304 75 322 0.0 0.0 0.00 0.00 0.00 60 996.4
20200407230200 75 321 0.0 0.0 0.00 0.00 0.00 61 996.4
20200407230053 75 322 0.0 0.0 0.00 0.00 0.00 61 996.4
20200407225950 75 321 0.0 1.0 0.00 0.00 0.00 62 996.4
20200407225843 75 321 0.0 1.0 0.00 0.00 0.00 60 996.4
20200407225740 75 134 0.0 0.0 0.00 0.00 0.00 60 996.4
20200407225632 75 317 0.0 0.0 0.00 0.00 0.00 60 996.4
20200407225530 75 317 0.0 0.0 0.00 0.00 0.00 59 996.4
20200407225427 75 317 0.0 0.0 0.00 0.00 0.00 60 996.4
20200407225324 75 317 0.0 0.0 0.00 0.00 0.00 60 996.4
20200407225222 75 317 0.0 0.0 0.00 0.00 0.00 59 996.4
20200407225119 76 317 0.0 0.0 0.00 0.00 0.00 59 996.4
20200407225016 76 317 0.0 0.0 0.00 0.00 0.00 59 996.4
20200407224914 76 317 0.0 0.0 0.00 0.00 0.00 59 996.4
20200407224809 76 317 0.0 0.0 0.00 0.00 0.00 58 996.4
20200407224703 76 317 0.0 0.0 0.00 0.00 0.00 58 996.4
20200407224600 76 322 0.0 0.0 0.00 0.00 0.00 59 996.4
20200407224453 76 322 0.0 0.0 0.00 0.00 0.00 57 996.4
20200407224347 76 302 0.0 0.0 0.00 0.00 0.00 57 996.4
20200407224241 76 296 0.0 0.0 0.00 0.00 0.00 57 996.4
20200407224134 76 296 0.0 0.0 0.00 0.00 0.00 57 996.4
20200407224030 76 297 0.0 0.0 0.00 0.00 0.00 57 996.3
20200407223928 76 297 0.0 1.0 0.00 0.00 0.00 57 996.3
20200407223823 76 297 0.0 1.0 0.00 0.00 0.00 56 996.4
20200407223720 76 297 0.0 1.0 0.00 0.00 0.00 56 996.4
20200407223614 76 297 0.0 1.0 0.00 0.00 0.00 56 996.4
20200407223508 76 314 0.0 1.0 0.00 0.00 0.00 56 996.3
20200407223405 76 337 0.0 1.0 0.00 0.00 0.00 56 996.3
20200407223257 76 337 0.0 1.0 0.00 0.00 0.00 55 996.3
20200407223154 76 119 0.0 1.0 0.00 0.00 0.00 56 996.4
20200407223047 76 135 0.0 1.0 0.00 0.00 0.00 55 996.3
20200407222942 77 300 0.0 0.0 0.00 0.00 0.00 56 996.3
20200407222835 77 300 0.0 1.0 0.00 0.00 0.00 56 996.4
20200407222732 77 300 0.0 1.0 0.00 0.00 0.00 55 996.4
20200407222629 77 319 0.0 1.0 0.00 0.00 0.00 54 996.4
20200407222524 77 319 0.0 1.0 0.00 0.00 0.00 54 996.4
20200407222419 77 94 0.0 1.0 0.00 0.00 0.00 55 996.4
20200407222316 77 180 0.0 0.0 0.00 0.00 0.00 54 996.4
20200407222213 77 158 0.0 3.0 0.00 0.00 0.00 54 996.4
20200407222110 77 158 0.0 3.0 0.00 0.00 0.00 54 996.5
20200407222007 77 158 0.0 3.0 0.00 0.00 0.00 54 996.4
20200407221900 77 158 0.0 3.0 0.00 0.00 0.00 53 996.4
20200407221755 77 11 0.0 3.0 0.00 0.00 0.00 54 996.5
20200407221653 77 281 0.0 3.0 0.00 0.00 0.00 53 996.4
20200407221548 77 227 0.0 1.0 0.00 0.00 0.00 53 996.5
20200407221446 77 204 0.0 0.0 0.00 0.00 0.00 54 996.4
20200407221343 77 195 0.0 0.0 0.00 0.00 0.00 54 996.5
20200407221238 77 219 0.0 0.0 0.00 0.00 0.00 53 996.5
20200407221135 77 219 0.0 0.0 0.00 0.00 0.00 53 996.4
20200407221029 77 50 0.0 0.0 0.00 0.00 0.00 53 996.6
20200407220923 77 50 0.0 3.0 0.00 0.00 0.00 53 996.5
20200407220815 77 50 0.0 3.0 0.00 0.00 0.00 52 996.5
20200407220710 77 315 0.0 3.0 0.00 0.00 0.00 52 996.5
20200407220603 77 10 0.0 3.0 0.00 0.00 0.00 52 996.5
20200407220459 77 319 0.0 0.0 0.00 0.00 0.00 52 996.5
20200407220355 77 304 0.0 4.0 0.00 0.00 0.00 53 996.5
20200407220252 77 297 0.0 4.0 0.00 0.00 0.00 52 996.5
20200407220149 77 270 0.0 4.0 0.00 0.00 0.00 53 996.6
20200407220047 77 34 0.0 4.0 0.00 0.00 0.00 51 996.6
20200407215939 77 43 0.0 4.0 0.00 0.00 0.00 51 996.6
20200407215835 77 148 0.0 4.0 0.00 0.00 0.00 51 996.5
20200407215729 77 252 0.0 4.0 0.00 0.00 0.00 51 996.6
20200407215626 77 315 0.0 4.0 0.00 0.00 0.00 51 996.6
20200407215524 77 78 0.0 4.0 0.00 0.00 0.00 51 996.6
20200407215416 77 344 0.0 4.0 0.00 0.00 0.00 50 996.7
20200407215314 77 0 0.0 4.0 0.00 0.00 0.00 51 996.7
20200407215210 77 0 0.0 4.0 0.00 0.00 0.00 50 996.6
20200407215106 77 0 0.0 4.0 0.00 0.00 0.00 50 996.6
20200407215001 77 234 0.0 4.0 0.00 0.00 0.00 50 996.6
20200407214857 77 281 0.0 4.0 0.00 0.00 0.00 50 996.6
20200407214749 77 294 0.0 4.0 0.00 0.00 0.00 50 996.6
20200407214646 77 331 0.0 4.0 0.00 0.00 0.00 50 996.6
20200407214539 77 332 0.0 4.0 0.00 0.00 0.00 50 996.6
20200407214433 77 302 0.0 4.0 0.00 0.00 0.00 49 996.6
20200407214327 77 282 0.0 0.0 0.00 0.00 0.00 49 996.6
20200407214223 77 286 0.0 0.0 0.00 0.00 0.00 49 996.5
20200407214121 77 286 0.0 4.0 0.00 0.00 0.00 49 996.6
20200407214019 77 296 0.0 4.0 0.00 0.00 0.00 49 996.6
20200407213914 77 308 0.0 4.0 0.00 0.00 0.00 49 996.6
20200407213809 77 311 0.0 4.0 0.00 0.00 0.00 48 996.6
20200407213704 77 304 0.0 2.0 0.00 0.00 0.00 49 996.7
20200407213600 77 304 0.0 2.0 0.00 0.00 0.00 49 996.6
20200407213455 77 304 0.0 2.0 0.00 0.00 0.00 49 996.7
20200407213352 77 317 0.0 1.0 0.00 0.00 0.00 48 996.6
20200407213245 77 309 0.0 2.0 0.00 0.00 0.00 47 996.7
20200407213139 77 297 0.0 2.0 0.00 0.00 0.00 48 996.6
20200407213032 77 304 0.0 0.0 0.00 0.00 0.00 49 996.6
20200407212930 77 304 0.0 3.0 0.00 0.00 0.00 49 996.7
20200407212828 77 226 0.0 3.0 0.00 0.00 0.00 48 996.7
20200407212720 77 278 0.0 3.0 0.00 0.00 0.00 49 996.7
20200407212613 77 221 0.0 3.0 0.00 0.00 0.00 50 996.8
20200407212505 77 321 0.0 2.0 0.00 0.00 0.00 49 996.8
20200407212403 77 38 0.0 2.0 0.00 0.00 0.00 49 996.8
20200407212300 77 330 0.0 2.0 0.00 0.00 0.00 49 996.7
20200407212155 77 333 0.0 2.0 0.00 0.00 0.00 50 996.7
20200407212050 77 335 0.0 2.0 0.00 0.00 0.00 48 996.8
20200407211945 76 82 0.0 2.0 0.00 0.00 0.00 49 996.7
20200407211842 76 82 0.0 2.0 0.00 0.00 0.00 49 996.7
20200407211736 76 300 0.0 2.0 0.00 0.00 0.00 49 996.7
20200407211633 76 252 0.0 2.0 0.00 0.00 0.00 49 996.8
20200407211529 76 239 0.0 2.0 0.00 0.00 0.00 50 996.8
20200407211424 76 237 0.0 2.0 0.00 0.00 0.00 50 996.8
20200407211318 76 17 0.0 2.0 0.00 0.00 0.00 50 996.8
20200407211213 76 57 0.0 2.0 0.00 0.00 0.00 51 996.9
20200407211111 76 302 0.0 7.0 0.00 0.00 0.00 50 996.9
20200407211004 76 305 1.0 7.0 0.00 0.00 0.00 51 996.8
20200407210902 76 304 1.0 7.0 0.00 0.00 0.00 51 996.8
20200407210800 76 88 1.0 7.0 0.00 0.00 0.00 51 996.8
20200407210656 76 247 1.0 7.0 0.00 0.00 0.00 51 996.8
20200407210547 76 163 1.0 7.0 0.00 0.00 0.00 52 996.8
20200407210440 76 330 1.0 7.0 0.00 0.00 0.00 52 996.8
20200407210341 76 332 1.0 7.0 0.00 0.00 0.00 52 996.8
20200407210233 76 150 1.0 7.0 0.00 0.00 0.00 52 996.8
20200407210125 76 269 1.0 17.0 0.00 0.00 0.00 52 996.9
20200407210021 76 322 1.0 17.0 0.00 0.00 0.00 51 996.9
20200407205916 76 309 1.0 17.0 0.00 0.00 0.00 52 996.8
20200407205812 76 285 1.0 17.0 0.00 0.00 0.00 52 996.9
20200407205705 76 300 2.0 17.0 0.00 0.00 0.00 52 996.8
20200407205601 77 238 2.0 17.0 0.00 0.00 0.00 51 996.9
20200407205457 77 256 2.0 17.0 0.00 0.00 0.00 53 996.9
20200407205351 77 279 2.0 17.0 0.00 0.00 0.00 52 997.0
20200407205245 77 310 3.0 17.0 0.00 0.00 0.00 53 997.0
20200407205141 77 326 3.0 17.0 0.00 0.00 0.00 51 997.0
20200407205038 77 292 3.0 17.0 0.00 0.00 0.00 51 997.0
20200407204933 78 266 4.0 17.0 0.00 0.00 0.00 50 997.1
20200407204829 78 246 4.0 17.0 0.00 0.00 0.00 49 997.2
20200407204725 78 277 3.0 17.0 0.00 0.00 0.00 49 997.3
20200407204620 79 315 3.0 17.0 0.00 0.00 0.00 48 997.4
20200407204513 79 43 3.0 17.0 0.00 0.00 0.00 48 997.3
20200407204409 79 299 2.0 17.0 0.00 0.00 0.00 47 997.3
20200407204301 80 299 1.0 17.0 0.00 0.00 0.00 45 997.4
20200407204158 80 239 1.0 11.0 0.00 0.00 0.00 44 997.4
20200407204053 81 219 1.0 7.0 0.00 0.00 0.00 44 997.3
20200407203948 81 236 0.0 7.0 0.00 0.00 0.00 43 997.1
20200407203846 81 80 0.0 3.0 0.00 0.00 0.00 44 997.2
20200407203743 81 254 0.0 0.0 0.00 0.00 0.00 44 997.1
20200407203639 81 32 0.0 3.0 0.00 0.00 0.00 44 997.1
20200407203536 81 334 0.0 3.0 0.00 0.00 0.00 43 997.0
20200407203432 81 288 0.0 3.0 0.00 0.00 0.00 43 997.0
20200407203328 81 109 0.0 3.0 0.00 0.00 0.00 45 997.1
20200407203220 81 48 0.0 3.0 0.00 0.00 0.00 43 997.0
20200407203118 81 302 0.0 3.0 0.00 0.00 0.00 42 997.1
20200407203014 81 284 0.0 3.0 0.00 0.00 0.00 43 997.1
20200407202908 81 219 0.0 3.0 0.00 0.00 0.00 43 997.2
20200407202804 81 307 0.0 3.0 0.00 0.00 0.00 44 997.1
20200407202700 81 319 0.0 3.0 0.00 0.00 0.00 42 997.1
20200407202555 81 334 0.0 2.0 0.00 0.00 0.00 43 997.1
20200407202449 81 302 1.0 2.0 0.00 0.00 0.00 44 997.1
20200407202343 81 281 1.0 0.0 0.00 0.00 0.00 44 997.1
20200407202237 81 281 1.0 10.0 0.00 0.00 0.00 43 997.0
20200407202131 81 279 1.0 10.0 0.00 0.00 0.00 42 997.1
20200407202026 81 286 1.0 10.0 0.00 0.00 0.00 43 997.0
20200407201918 81 286 2.0 10.0 0.00 0.00 0.00 43 997.0
20200407201813 81 291 2.0 10.0 0.00 0.00 0.00 45 997.0
20200407201707 81 321 1.0 10.0 0.00 0.00 0.00 43 996.9
20200407201603 81 292 1.0 10.0 0.00 0.00 0.00 43 996.9
20200407201456 81 333 1.0 10.0 0.00 0.00 0.00 42 997.0
20200407201354 81 249 1.0 10.0 0.00 0.00 0.00 42 996.9
20200407201250 81 148 1.0 10.0 0.00 0.00 0.00 43 996.8
20200407201228 81 148 0.0 10.0 0.00 0.00 0.00 42 996.9
20200407201049 81 232 0.0 6.0 0.00 0.00 0.00 42 996.8
20200407200931 81 329 0.0 6.0 0.00 0.00 0.00 42 996.8
20200407200828 81 256 0.0 6.0 0.00 0.00 0.00 43 996.9
20200407200723 81 289 0.0 6.0 0.00 0.00 0.00 42 996.9
20200407200620 81 292 0.0 6.0 0.00 0.00 0.00 43 996.8
20200407200514 81 297 0.0 6.0 0.00 0.00 0.00 44 996.8
20200407200410 81 336 0.0 6.0 0.00 0.00 0.00 43 996.8
20200407200305 81 344 0.0 6.0 0.00 0.00 0.00 43 996.9
20200407200159 81 131 0.0 6.0 0.00 0.00 0.00 43 996.8
20200407200057 81 313 0.0 6.0 0.00 0.00 0.00 43 997.0
20200407195948 81 165 0.0 6.0 0.00 0.00 0.00 44 996.9
20200407195845 81 313 0.0 6.0 0.00 0.00 0.00 44 996.9
20200407195738 81 207 0.0 6.0 0.00 0.00 0.00 41 996.9
20200407195631 81 286 0.0 5.0 0.00 0.00 0.00 44 996.9
20200407195527 81 306 0.0 5.0 0.00 0.00 0.00 45 997.0
20200407195422 81 305 0.0 1.0 0.00 0.00 0.00 44 997.0
20200407195321 81 217 0.0 0.0 0.00 0.00 0.00 44 996.9
20200407195216 81 218 0.0 8.0 0.00 0.00 0.00 43 996.9
20200407195110 81 206 0.0 8.0 0.00 0.00 0.00 45 996.9
20200407195003 81 298 0.0 8.0 0.00 0.00 0.00 44 997.0
20200407194857 81 333 0.0 8.0 0.00 0.00 0.00 44 997.0
20200407194755 81 221 0.0 4.0 0.00 0.00 0.00 44 997.0
20200407194649 81 109 0.0 4.0 0.00 0.00 0.00 44 997.1
20200407194545 81 16 0.0 4.0 0.00 0.00 0.00 44 997.1
20200407194440 81 300 0.0 4.0 0.00 0.00 0.00 44 997.1
20200407194335 81 262 1.0 4.0 0.00 0.00 0.00 47 997.1
20200407194233 80 262 1.0 4.0 0.00 0.00 0.00 47 997.1
20200407194125 80 234 0.0 4.0 0.00 0.00 0.00 47 997.1
20200407194021 80 308 0.0 4.0 0.00 0.00 0.00 46 997.2
20200407193917 80 244 0.0 4.0 0.00 0.00 0.00 46 997.1
20200407193812 80 36 0.0 3.0 0.00 0.00 0.00 48 997.2
20200407193708 80 244 0.0 3.0 0.00 0.00 0.00 48 997.2
20200407193601 80 239 0.0 3.0 0.00 0.00 0.00 48 997.3
20200407193455 79 319 0.0 3.0 0.00 0.00 0.00 49 997.3
20200407193352 79 317 0.0 2.0 0.00 0.00 0.00 48 997.3
20200407193246 79 292 0.0 2.0 0.00 0.00 0.00 50 997.3
20200407193140 79 246 0.0 2.0 0.00 0.00 0.00 52 997.4
20200407193034 79 273 0.0 2.0 0.00 0.00 0.00 54 997.4
20200407192927 80 273 0.0 2.0 0.00 0.00 0.00 49 997.4
20200407192825 80 299 0.0 1.0 0.00 0.00 0.00 57 997.4